Time,TemperatureF,DewpointF,PressureIn,WindDirection,WindDirectionDegrees,WindSpeedMPH,WindSpeedGustMPH,Humidity,HourlyPrecipIn,Conditions,Clouds,dailyrainin,SoftwareType,DateUTC
2013-04-21 00:00:00,29.8,29.8,30.53,NW,315,4.0,4.0,0,0.00,,,0.01,meteohub,2013-04-21 04:00:00,
2013-04-21 00:01:00,30.0,30.0,30.54,North,0,2.0,2.0,0,0.00,,,0.01,meteohub,2013-04-21 04:01:00,
2013-04-21 00:02:00,30.0,30.0,30.54,North,0,2.0,2.0,0,0.00,,,0.01,meteohub,2013-04-21 04:02:00,
2013-04-21 00:06:00,30.0,30.0,30.54,North,0,2.0,4.0,0,0.00,,,0.00,meteohub,2013-04-21 04:06:00,
2013-04-21 00:07:00,30.0,30.0,30.54,North,0,1.0,4.0,0,0.00,,,0.00,meteohub,2013-04-21 04:07:00,
2013-04-21 00:09:00,30.0,30.0,30.54,NW,315,2.0,4.0,0,0.00,,,0.00,meteohub,2013-04-21 04:09:00,
2013-04-21 00:11:00,30.0,30.0,30.54,North,0,1.0,4.0,0,0.00,,,0.00,meteohub,2013-04-21 04:11:00,
2013-04-21 00:12:00,30.0,30.0,30.54,North,0,1.0,4.0,0,0.00,,,0.00,meteohub,2013-04-21 04:12:00,
2013-04-21 00:13:00,30.0,30.0,30.54,North,0,2.0,4.0,0,0.00,,,0.00,meteohub,2013-04-21 04:13:00,
2013-04-21 00:16:00,29.8,29.8,30.55,North,0,0.0,4.0,0,0.00,,,0.00,meteohub,2013-04-21 04:16:00,
2013-04-21 00:17:00,29.8,29.8,30.55,North,0,1.0,4.0,0,0.00,,,0.00,meteohub,2013-04-21 04:17:00,
2013-04-21 00:18:00,29.8,29.8,30.54,North,0,2.0,4.0,0,0.00,,,0.00,meteohub,2013-04-21 04:18:00,
2013-04-21 00:21:00,29.7,29.7,30.54,North,0,2.0,4.0,0,0.00,,,0.00,meteohub,2013-04-21 04:21:00,
2013-04-21 00:22:00,29.7,29.7,30.54,NE,45,4.0,4.0,0,0.00,,,0.00,meteohub,2013-04-21 04:22:00,
2013-04-21 00:23:00,29.7,29.7,30.54,North,0,2.0,4.0,0,0.00,,,0.00,meteohub,2013-04-21 04:23:00,
2013-04-21 00:25:00,29.8,29.8,30.54,North,0,1.0,4.0,0,0.00,,,0.00,meteohub,2013-04-21 04:25:00,
2013-04-21 00:26:00,29.8,29.8,30.54,North,0,2.0,4.0,0,0.00,,,0.00,meteohub,2013-04-21 04:26:00,
2013-04-21 00:27:00,29.8,29.8,30.54,NE,45,2.0,4.0,0,0.00,,,0.00,meteohub,2013-04-21 04:27:00,
2013-04-21 00:29:00,29.8,29.8,30.55,WSW,248,2.0,4.0,0,0.00,,,0.00,meteohub,2013-04-21 04:29:00,
2013-04-21 00:30:00,30.0,30.0,30.55,North,0,1.0,6.0,0,0.00,,,0.00,meteohub,2013-04-21 04:30:00,
2013-04-21 00:32:00,30.0,30.0,30.54,North,0,2.0,6.0,0,0.00,,,0.00,meteohub,2013-04-21 04:32:00,
2013-04-21 00:33:00,30.0,30.0,30.55,SE,135,2.0,6.0,0,0.00,,,0.00,meteohub,2013-04-21 04:33:00,
2013-04-21 00:34:00,30.0,30.0,30.55,NW,315,2.0,6.0,0,0.00,,,0.00,meteohub,2013-04-21 04:34:00,
2013-04-21 00:35:00,30.0,30.0,30.55,NE,45,1.0,6.0,0,0.00,,,0.00,meteohub,2013-04-21 04:35:00,
2013-04-21 00:36:00,30.0,30.0,30.55,North,0,2.0,6.0,0,0.00,,,0.00,meteohub,2013-04-21 04:36:00,
2013-04-21 00:38:00,30.0,30.0,30.55,North,0,2.0,6.0,0,0.00,,,0.00,meteohub,2013-04-21 04:38:00,
2013-04-21 00:40:00,29.8,29.8,30.55,West,270,0.0,4.0,0,0.00,,,0.00,meteohub,2013-04-21 04:40:00,
2013-04-21 00:41:00,29.8,29.8,30.55,North,0,1.0,4.0,0,0.00,,,0.00,meteohub,2013-04-21 04:41:00,
2013-04-21 00:44:00,29.7,29.7,30.55,NW,315,0.0,4.0,0,0.00,,,0.00,meteohub,2013-04-21 04:44:00,
2013-04-21 00:45:00,29.7,29.7,30.55,West,270,2.0,4.0,0,0.00,,,0.00,meteohub,2013-04-21 04:45:00,
2013-04-21 00:46:00,29.7,29.7,30.56,North,0,3.0,4.0,0,0.00,,,0.00,meteohub,2013-04-21 04:46:00,
2013-04-21 00:47:00,29.7,29.7,30.55,North,0,1.0,4.0,0,0.00,,,0.00,meteohub,2013-04-21 04:47:00,
2013-04-21 00:50:00,29.7,29.7,30.55,NW,315,2.0,3.0,0,0.00,,,0.00,meteohub,2013-04-21 04:50:00,
2013-04-21 00:51:00,29.7,29.7,30.55,North,0,2.0,3.0,0,0.00,,,0.00,meteohub,2013-04-21 04:51:00,
2013-04-21 00:52:00,29.7,29.7,30.55,North,0,0.0,3.0,0,0.00,,,0.00,meteohub,2013-04-21 04:52:00,
2013-04-21 00:53:00,29.5,29.5,30.55,North,0,0.0,3.0,0,0.00,,,0.00,meteohub,2013-04-21 04:53:00,
2013-04-21 00:56:00,29.5,29.5,30.56,West,270,2.0,3.0,0,0.00,,,0.00,meteohub,2013-04-21 04:56:00,
2013-04-21 00:57:00,29.5,29.5,30.56,North,0,2.0,3.0,0,0.00,,,0.00,meteohub,2013-04-21 04:57:00,
2013-04-21 00:59:00,29.7,29.7,30.56,East,90,2.0,3.0,0,0.00,,,0.00,meteohub,2013-04-21 04:59:00,
2013-04-21 01:00:00,29.7,29.7,30.56,East,90,2.0,3.0,0,0.00,,,0.00,meteohub,2013-04-21 05:00:00,
2013-04-21 01:01:00,29.7,29.7,30.56,East,90,2.0,3.0,0,0.00,,,0.00,meteohub,2013-04-21 05:01:00,
2013-04-21 01:02:00,29.7,29.7,30.56,East,90,2.0,3.0,0,0.00,,,0.00,meteohub,2013-04-21 05:02:00,
2013-04-21 01:04:00,29.7,29.7,30.56,East,90,2.0,3.0,0,0.00,,,0.00,meteohub,2013-04-21 05:04:00,
2013-04-21 01:05:00,29.7,29.7,30.56,East,90,2.0,3.0,0,0.00,,,0.00,meteohub,2013-04-21 05:05:00,
2013-04-21 01:07:00,29.7,29.7,30.56,West,270,2.0,3.0,0,0.00,,,0.00,meteohub,2013-04-21 05:07:00,
2013-04-21 01:08:00,29.7,29.7,30.56,NW,315,1.0,3.0,0,0.00,,,0.00,meteohub,2013-04-21 05:08:00,
2013-04-21 01:10:00,29.7,29.7,30.56,North,0,2.0,3.0,0,0.00,,,0.00,meteohub,2013-04-21 05:10:00,
2013-04-21 01:11:00,29.7,29.7,30.56,North,0,1.0,3.0,0,0.00,,,0.00,meteohub,2013-04-21 05:11:00,
2013-04-21 01:14:00,29.5,29.5,30.56,North,0,1.0,3.0,0,0.00,,,0.00,meteohub,2013-04-21 05:14:00,
2013-04-21 01:16:00,29.5,29.5,30.56,North,0,0.0,2.0,0,0.00,,,0.00,meteohub,2013-04-21 05:16:00,
2013-04-21 01:17:00,29.5,29.5,30.56,NW,315,0.0,2.0,0,0.00,,,0.00,meteohub,2013-04-21 05:17:00,
2013-04-21 01:19:00,29.3,29.3,30.56,NW,315,0.0,2.0,0,0.00,,,0.00,meteohub,2013-04-21 05:19:00,
2013-04-21 01:20:00,29.3,29.3,30.56,NW,315,0.0,2.0,0,0.00,,,0.00,meteohub,2013-04-21 05:20:00,
2013-04-21 01:21:00,29.3,29.3,30.56,NW,315,0.0,2.0,0,0.00,,,0.00,meteohub,2013-04-21 05:21:00,
2013-04-21 01:22:00,29.3,29.3,30.56,NW,315,0.0,2.0,0,0.00,,,0.00,meteohub,2013-04-21 05:22:00,
2013-04-21 01:25:00,28.9,28.9,30.56,NW,315,1.0,2.0,0,0.00,,,0.00,meteohub,2013-04-21 05:25:00,
2013-04-21 01:26:00,28.9,28.9,30.56,NE,45,0.0,1.0,0,0.00,,,0.00,meteohub,2013-04-21 05:26:00,
2013-04-21 01:27:00,28.9,28.9,30.56,North,0,0.0,1.0,0,0.00,,,0.00,meteohub,2013-04-21 05:27:00,
2013-04-21 01:30:00,28.8,28.8,30.56,North,0,0.0,1.0,0,0.00,,,0.00,meteohub,2013-04-21 05:30:00,
2013-04-21 01:31:00,28.8,28.8,30.56,North,0,0.0,1.0,0,0.00,,,0.00,meteohub,2013-04-21 05:31:00,
2013-04-21 01:33:00,28.6,28.6,30.56,NE,45,0.0,1.0,0,0.00,,,0.00,meteohub,2013-04-21 05:33:00,
2013-04-21 01:34:00,28.6,28.6,30.56,NE,45,0.0,1.0,0,0.00,,,0.00,meteohub,2013-04-21 05:34:00,
2013-04-21 01:35:00,28.4,28.4,30.56,NE,45,1.0,2.0,0,0.00,,,0.00,meteohub,2013-04-21 05:35:00,
2013-04-21 01:36:00,28.4,28.4,30.56,NE,45,0.0,2.0,0,0.00,,,0.00,meteohub,2013-04-21 05:36:00,
2013-04-21 01:38:00,28.4,28.4,30.57,NE,45,1.0,2.0,0,0.00,,,0.00,meteohub,2013-04-21 05:38:00,
2013-04-21 01:40:00,28.4,28.4,30.56,NE,45,0.0,2.0,0,0.00,,,0.00,meteohub,2013-04-21 05:40:00,
2013-04-21 01:42:00,28.4,28.4,30.56,North,0,0.0,2.0,0,0.00,,,0.00,meteohub,2013-04-21 05:42:00,
2013-04-21 01:43:00,28.4,28.4,30.56,NE,45,2.0,2.0,0,0.00,,,0.00,meteohub,2013-04-21 05:43:00,
2013-04-21 01:47:00,28.4,28.4,30.56,NE,45,2.0,2.0,0,0.00,,,0.00,meteohub,2013-04-21 05:47:00,
2013-04-21 01:48:00,28.4,28.4,30.56,North,0,0.0,2.0,0,0.00,,,0.00,meteohub,2013-04-21 05:48:00,
2013-04-21 01:49:00,28.4,28.4,30.57,North,0,0.0,2.0,0,0.00,,,0.00,meteohub,2013-04-21 05:49:00,
2013-04-21 01:50:00,28.4,28.4,30.56,North,0,0.0,2.0,0,0.00,,,0.00,meteohub,2013-04-21 05:50:00,
2013-04-21 01:52:00,28.4,28.4,30.57,NW,315,1.0,2.0,0,0.00,,,0.00,meteohub,2013-04-21 05:52:00,
2013-04-21 01:53:00,28.4,28.4,30.57,NW,315,0.0,2.0,0,0.00,,,0.00,meteohub,2013-04-21 05:53:00,
2013-04-21 01:54:00,28.4,28.4,30.57,North,0,1.0,2.0,0,0.00,,,0.00,meteohub,2013-04-21 05:54:00,
2013-04-21 01:55:00,28.4,28.4,30.57,North,0,1.0,2.0,0,0.00,,,0.00,meteohub,2013-04-21 05:55:00,
2013-04-21 01:56:00,28.4,28.4,30.56,North,0,0.0,2.0,0,0.00,,,0.00,meteohub,2013-04-21 05:56:00,
2013-04-21 01:57:00,28.2,28.2,30.57,North,0,0.0,2.0,0,0.00,,,0.00,meteohub,2013-04-21 05:57:00,
2013-04-21 01:58:00,28.2,28.2,30.57,North,0,2.0,2.0,0,0.00,,,0.00,meteohub,2013-04-21 05:58:00,
2013-04-21 02:00:00,28.2,28.2,30.57,North,0,1.0,2.0,0,0.00,,,0.00,meteohub,2013-04-21 06:00:00,
2013-04-21 02:01:00,28.2,28.2,30.57,North,0,1.0,2.0,0,0.00,,,0.00,meteohub,2013-04-21 06:01:00,
2013-04-21 02:03:00,28.2,28.2,30.56,North,0,1.0,2.0,0,0.00,,,0.00,meteohub,2013-04-21 06:03:00,
2013-04-21 02:06:00,28.2,28.2,30.57,North,0,1.0,2.0,0,0.00,,,0.00,meteohub,2013-04-21 06:06:00,
2013-04-21 02:07:00,28.2,28.2,30.56,North,0,1.0,2.0,0,0.00,,,0.00,meteohub,2013-04-21 06:07:00,
2013-04-21 02:08:00,28.2,28.2,30.56,North,0,0.0,2.0,0,0.00,,,0.00,meteohub,2013-04-21 06:08:00,
2013-04-21 02:09:00,28.2,28.2,30.56,North,0,0.0,2.0,0,0.00,,,0.00,meteohub,2013-04-21 06:09:00,
2013-04-21 02:12:00,28.2,28.2,30.57,North,0,1.0,2.0,0,0.00,,,0.00,meteohub,2013-04-21 06:12:00,
2013-04-21 02:13:00,28.2,28.2,30.57,North,0,0.0,2.0,0,0.00,,,0.00,meteohub,2013-04-21 06:13:00,
2013-04-21 02:14:00,28.0,28.0,30.56,North,0,0.0,2.0,0,0.00,,,0.00,meteohub,2013-04-21 06:14:00,
2013-04-21 02:17:00,27.9,27.9,30.57,SE,135,0.0,2.0,0,0.00,,,0.00,meteohub,2013-04-21 06:17:00,
2013-04-21 02:18:00,27.9,27.9,30.57,SE,135,0.0,2.0,0,0.00,,,0.00,meteohub,2013-04-21 06:18:00,
2013-04-21 02:19:00,27.9,27.9,30.57,SE,135,0.0,2.0,0,0.00,,,0.00,meteohub,2013-04-21 06:19:00,
2013-04-21 02:20:00,27.9,27.9,30.57,NW,315,0.0,2.0,0,0.00,,,0.00,meteohub,2013-04-21 06:20:00,
2013-04-21 02:22:00,27.9,27.9,30.57,NE,45,0.0,2.0,0,0.00,,,0.00,meteohub,2013-04-21 06:22:00,
2013-04-21 02:23:00,27.9,27.9,30.57,North,0,0.0,2.0,0,0.00,,,0.00,meteohub,2013-04-21 06:23:00,
2013-04-21 02:25:00,27.9,27.9,30.57,North,0,1.0,2.0,0,0.00,,,0.00,meteohub,2013-04-21 06:25:00,
2013-04-21 02:26:00,27.9,27.9,30.57,North,0,1.0,2.0,0,0.00,,,0.00,meteohub,2013-04-21 06:26:00,
2013-04-21 02:27:00,27.9,27.9,30.57,North,0,0.0,2.0,0,0.00,,,0.00,meteohub,2013-04-21 06:27:00,
2013-04-21 02:28:00,27.9,27.9,30.56,North,0,2.0,2.0,0,0.00,,,0.00,meteohub,2013-04-21 06:28:00,
2013-04-21 02:29:00,27.9,27.9,30.57,North,0,1.0,2.0,0,0.00,,,0.00,meteohub,2013-04-21 06:29:00,
2013-04-21 02:30:00,27.9,27.9,30.57,NE,45,2.0,2.0,0,0.00,,,0.00,meteohub,2013-04-21 06:30:00,
2013-04-21 02:31:00,27.9,27.9,30.57,NE,45,2.0,2.0,0,0.00,,,0.00,meteohub,2013-04-21 06:31:00,
2013-04-21 02:32:00,27.9,27.9,30.57,NE,45,2.0,2.0,0,0.00,,,0.00,meteohub,2013-04-21 06:32:00,
2013-04-21 02:34:00,27.9,27.9,30.56,NE,45,2.0,2.0,0,0.00,,,0.00,meteohub,2013-04-21 06:34:00,
2013-04-21 02:36:00,27.9,27.9,30.57,North,0,0.0,2.0,0,0.00,,,0.00,meteohub,2013-04-21 06:36:00,
2013-04-21 02:37:00,27.9,27.9,30.57,NE,45,1.0,2.0,0,0.00,,,0.00,meteohub,2013-04-21 06:37:00,
2013-04-21 02:39:00,27.9,27.9,30.57,West,270,0.0,2.0,0,0.00,,,0.00,meteohub,2013-04-21 06:39:00,
2013-04-21 02:41:00,27.7,27.7,30.57,North,0,0.0,2.0,0,0.00,,,0.00,meteohub,2013-04-21 06:41:00,
2013-04-21 02:42:00,27.7,27.7,30.57,NE,45,1.0,2.0,0,0.00,,,0.00,meteohub,2013-04-21 06:42:00,
2013-04-21 02:43:00,27.7,27.7,30.57,West,270,1.0,2.0,0,0.00,,,0.00,meteohub,2013-04-21 06:43:00,
2013-04-21 02:45:00,27.7,27.7,30.57,North,0,0.0,2.0,0,0.00,,,0.00,meteohub,2013-04-21 06:45:00,
2013-04-21 02:47:00,27.7,27.7,30.58,North,0,0.0,2.0,0,0.00,,,0.00,meteohub,2013-04-21 06:47:00,
2013-04-21 02:48:00,27.5,27.5,30.58,North,0,0.0,2.0,0,0.00,,,0.00,meteohub,2013-04-21 06:48:00,
2013-04-21 02:49:00,27.5,27.5,30.57,North,0,1.0,2.0,0,0.00,,,0.00,meteohub,2013-04-21 06:49:00,
2013-04-21 02:50:00,27.5,27.5,30.57,North,0,1.0,2.0,0,0.00,,,0.00,meteohub,2013-04-21 06:50:00,
2013-04-21 02:51:00,27.5,27.5,30.57,North,0,0.0,1.0,0,0.00,,,0.00,meteohub,2013-04-21 06:51:00,
2013-04-21 02:52:00,27.5,27.5,30.57,SE,135,0.0,1.0,0,0.00,,,0.00,meteohub,2013-04-21 06:52:00,
2013-04-21 02:53:00,27.5,27.5,30.57,NE,45,0.0,1.0,0,0.00,,,0.00,meteohub,2013-04-21 06:53:00,
2013-04-21 02:55:00,27.5,27.5,30.57,NE,45,2.0,2.0,0,0.00,,,0.00,meteohub,2013-04-21 06:55:00,
2013-04-21 02:57:00,27.5,27.5,30.57,North,0,1.0,2.0,0,0.00,,,0.00,meteohub,2013-04-21 06:57:00,
2013-04-21 02:59:00,27.5,27.5,30.58,NW,315,1.0,2.0,0,0.00,,,0.00,meteohub,2013-04-21 06:59:00,
2013-04-21 03:00:00,27.7,27.7,30.57,North,0,1.0,2.0,0,0.00,,,0.00,meteohub,2013-04-21 07:00:00,
2013-04-21 03:01:00,27.7,27.7,30.57,North,0,1.0,2.0,0,0.00,,,0.00,meteohub,2013-04-21 07:01:00,
2013-04-21 03:02:00,27.7,27.7,30.57,North,0,1.0,2.0,0,0.00,,,0.00,meteohub,2013-04-21 07:02:00,
2013-04-21 03:03:00,27.7,27.7,30.57,North,0,1.0,2.0,0,0.00,,,0.00,meteohub,2013-04-21 07:03:00,
2013-04-21 03:05:00,27.7,27.7,30.58,North,0,1.0,2.0,0,0.00,,,0.00,meteohub,2013-04-21 07:05:00,
2013-04-21 03:06:00,27.7,27.7,30.58,North,0,1.0,2.0,0,0.00,,,0.00,meteohub,2013-04-21 07:06:00,
2013-04-21 03:08:00,27.7,27.7,30.58,North,0,0.0,2.0,0,0.00,,,0.00,meteohub,2013-04-21 07:08:00,
2013-04-21 03:10:00,27.7,27.7,30.58,NW,315,1.0,2.0,0,0.00,,,0.00,meteohub,2013-04-21 07:10:00,
2013-04-21 03:12:00,27.7,27.7,30.58,NE,45,0.0,2.0,0,0.00,,,0.00,meteohub,2013-04-21 07:12:00,
2013-04-21 03:13:00,27.7,27.7,30.58,North,0,0.0,2.0,0,0.00,,,0.00,meteohub,2013-04-21 07:13:00,
2013-04-21 03:14:00,27.5,27.5,30.58,East,90,1.0,2.0,0,0.00,,,0.00,meteohub,2013-04-21 07:14:00,
2013-04-21 03:16:00,27.5,27.5,30.58,East,90,1.0,1.0,0,0.00,,,0.00,meteohub,2013-04-21 07:16:00,
2013-04-21 03:19:00,27.5,27.5,30.58,South,180,0.0,1.0,0,0.00,,,0.00,meteohub,2013-04-21 07:19:00,
2013-04-21 03:20:00,27.5,27.5,30.58,SE,135,0.0,1.0,0,0.00,,,0.00,meteohub,2013-04-21 07:20:00,
2013-04-21 03:22:00,27.7,27.7,30.58,NE,45,0.0,1.0,0,0.00,,,0.00,meteohub,2013-04-21 07:22:00,
2013-04-21 03:24:00,27.7,27.7,30.58,NE,45,0.0,1.0,0,0.00,,,0.00,meteohub,2013-04-21 07:24:00,
2013-04-21 03:25:00,27.7,27.7,30.58,East,90,1.0,1.0,0,0.00,,,0.00,meteohub,2013-04-21 07:25:00,
2013-04-21 03:28:00,27.9,27.9,30.58,North,0,0.0,1.0,0,0.00,,,0.00,meteohub,2013-04-21 07:28:00,
2013-04-21 03:29:00,27.9,27.9,30.58,North,0,0.0,1.0,0,0.00,,,0.00,meteohub,2013-04-21 07:29:00,
2013-04-21 03:31:00,28.0,28.0,30.59,NE,45,0.0,1.0,0,0.00,,,0.00,meteohub,2013-04-21 07:31:00,
2013-04-21 03:32:00,28.0,28.0,30.59,NE,45,1.0,1.0,0,0.00,,,0.00,meteohub,2013-04-21 07:32:00,
2013-04-21 03:33:00,28.0,28.0,30.58,NE,45,1.0,1.0,0,0.00,,,0.00,meteohub,2013-04-21 07:33:00,
2013-04-21 03:35:00,28.2,28.2,30.59,North,0,1.0,2.0,0,0.00,,,0.00,meteohub,2013-04-21 07:35:00,
2013-04-21 03:36:00,28.2,28.2,30.59,North,0,0.0,2.0,0,0.00,,,0.00,meteohub,2013-04-21 07:36:00,
2013-04-21 03:37:00,28.2,28.2,30.59,North,0,0.0,2.0,0,0.00,,,0.00,meteohub,2013-04-21 07:37:00,
2013-04-21 03:38:00,28.4,28.4,30.59,North,0,2.0,2.0,0,0.00,,,0.00,meteohub,2013-04-21 07:38:00,
2013-04-21 03:39:00,28.4,28.4,30.59,North,0,2.0,2.0,0,0.00,,,0.00,meteohub,2013-04-21 07:39:00,
2013-04-21 03:41:00,28.4,28.4,30.59,NE,45,2.0,2.0,0,0.00,,,0.00,meteohub,2013-04-21 07:41:00,
2013-04-21 03:42:00,28.4,28.4,30.59,North,0,0.0,2.0,0,0.00,,,0.00,meteohub,2013-04-21 07:42:00,
2013-04-21 03:44:00,28.4,28.4,30.58,North,0,2.0,2.0,0,0.00,,,0.00,meteohub,2013-04-21 07:44:00,
2013-04-21 03:46:00,28.6,28.6,30.59,North,0,2.0,2.0,0,0.00,,,0.00,meteohub,2013-04-21 07:46:00,
2013-04-21 03:47:00,28.6,28.6,30.59,North,0,2.0,2.0,0,0.00,,,0.00,meteohub,2013-04-21 07:47:00,
2013-04-21 03:48:00,28.6,28.6,30.58,East,90,1.0,2.0,0,0.00,,,0.00,meteohub,2013-04-21 07:48:00,
2013-04-21 03:49:00,28.6,28.6,30.59,North,0,2.0,2.0,0,0.00,,,0.00,meteohub,2013-04-21 07:49:00,
2013-04-21 03:51:00,28.8,28.8,30.59,NE,45,0.0,2.0,0,0.00,,,0.00,meteohub,2013-04-21 07:51:00,
2013-04-21 03:52:00,28.8,28.8,30.59,NE,45,0.0,2.0,0,0.00,,,0.00,meteohub,2013-04-21 07:52:00,
2013-04-21 03:53:00,28.8,28.8,30.59,NE,45,1.0,2.0,0,0.00,,,0.00,meteohub,2013-04-21 07:53:00,
2013-04-21 03:54:00,28.8,28.8,30.59,NE,45,0.0,2.0,0,0.00,,,0.00,meteohub,2013-04-21 07:54:00,
2013-04-21 03:55:00,28.8,28.8,30.59,NE,45,1.0,2.0,0,0.00,,,0.00,meteohub,2013-04-21 07:55:00,
2013-04-21 03:56:00,28.8,28.8,30.59,North,0,1.0,2.0,0,0.00,,,0.00,meteohub,2013-04-21 07:56:00,
2013-04-21 03:57:00,28.8,28.8,30.59,North,0,2.0,2.0,0,0.00,,,0.00,meteohub,2013-04-21 07:57:00,
2013-04-21 03:59:00,28.8,28.8,30.58,East,90,2.0,2.0,0,0.00,,,0.00,meteohub,2013-04-21 07:59:00,
2013-04-21 04:00:00,28.8,28.8,30.59,NE,45,2.0,2.0,0,0.00,,,0.00,meteohub,2013-04-21 08:00:00,
2013-04-21 04:02:00,28.8,28.8,30.59,NE,45,2.0,2.0,0,0.00,,,0.00,meteohub,2013-04-21 08:02:00,
2013-04-21 04:05:00,28.8,28.8,30.59,NE,45,2.0,2.0,0,0.00,,,0.00,meteohub,2013-04-21 08:05:00,
2013-04-21 04:06:00,28.8,28.8,30.60,NE,45,2.0,2.0,0,0.00,,,0.00,meteohub,2013-04-21 08:06:00,
2013-04-21 04:07:00,28.9,28.9,30.60,North,0,2.0,2.0,0,0.00,,,0.00,meteohub,2013-04-21 08:07:00,
2013-04-21 04:08:00,28.9,28.9,30.60,SE,135,1.0,2.0,0,0.00,,,0.00,meteohub,2013-04-21 08:08:00,
2013-04-21 04:10:00,28.9,28.9,30.60,North,0,1.0,2.0,0,0.00,,,0.00,meteohub,2013-04-21 08:10:00,
2013-04-21 04:12:00,28.9,28.9,30.60,North,0,0.0,2.0,0,0.00,,,0.00,meteohub,2013-04-21 08:12:00,
2013-04-21 04:14:00,28.9,28.9,30.60,North,0,1.0,2.0,0,0.00,,,0.00,meteohub,2013-04-21 08:14:00,
2013-04-21 04:15:00,28.8,28.8,30.60,NE,45,1.0,2.0,0,0.00,,,0.00,meteohub,2013-04-21 08:15:00,
2013-04-21 04:17:00,28.8,28.8,30.60,North,0,0.0,2.0,0,0.00,,,0.00,meteohub,2013-04-21 08:17:00,
2013-04-21 04:19:00,28.8,28.8,30.60,NE,45,0.0,2.0,0,0.00,,,0.00,meteohub,2013-04-21 08:19:00,
2013-04-21 04:20:00,28.8,28.8,30.60,North,0,1.0,2.0,0,0.00,,,0.00,meteohub,2013-04-21 08:20:00,
2013-04-21 04:22:00,28.8,28.8,30.60,North,0,2.0,2.0,0,0.00,,,0.00,meteohub,2013-04-21 08:22:00,
2013-04-21 04:26:00,28.8,28.8,30.60,North,0,2.0,3.0,0,0.00,,,0.00,meteohub,2013-04-21 08:26:00,
2013-04-21 04:27:00,28.8,28.8,30.60,North,0,2.0,3.0,0,0.00,,,0.00,meteohub,2013-04-21 08:27:00,
2013-04-21 04:28:00,28.6,28.6,30.60,North,0,3.0,3.0,0,0.00,,,0.00,meteohub,2013-04-21 08:28:00,
2013-04-21 04:31:00,28.6,28.6,30.60,NE,45,1.0,3.0,0,0.00,,,0.00,meteohub,2013-04-21 08:31:00,
2013-04-21 04:32:00,28.6,28.6,30.60,North,0,2.0,3.0,0,0.00,,,0.00,meteohub,2013-04-21 08:32:00,
2013-04-21 04:33:00,28.6,28.6,30.60,North,0,2.0,3.0,0,0.00,,,0.00,meteohub,2013-04-21 08:33:00,
2013-04-21 04:34:00,28.6,28.6,30.60,East,90,3.0,3.0,0,0.00,,,0.00,meteohub,2013-04-21 08:34:00,
2013-04-21 04:37:00,28.6,28.6,30.60,North,0,2.0,3.0,0,0.00,,,0.00,meteohub,2013-04-21 08:37:00,
2013-04-21 04:38:00,28.4,28.4,30.60,NE,45,1.0,3.0,0,0.00,,,0.00,meteohub,2013-04-21 08:38:00,
2013-04-21 04:39:00,28.4,28.4,30.60,West,270,0.0,3.0,0,0.00,,,0.00,meteohub,2013-04-21 08:39:00,
2013-04-21 04:42:00,28.2,28.2,30.60,North,0,2.0,3.0,0,0.00,,,0.00,meteohub,2013-04-21 08:42:00,
2013-04-21 04:43:00,28.2,28.2,30.60,North,0,2.0,3.0,0,0.00,,,0.00,meteohub,2013-04-21 08:43:00,
2013-04-21 04:44:00,28.2,28.2,30.60,East,90,2.0,3.0,0,0.00,,,0.00,meteohub,2013-04-21 08:44:00,
2013-04-21 04:48:00,28.0,28.0,30.60,East,90,0.0,3.0,0,0.00,,,0.00,meteohub,2013-04-21 08:48:00,
2013-04-21 04:49:00,28.0,28.0,30.60,North,0,0.0,3.0,0,0.00,,,0.00,meteohub,2013-04-21 08:49:00,
2013-04-21 04:50:00,28.0,28.0,30.61,NW,315,0.0,3.0,0,0.00,,,0.00,meteohub,2013-04-21 08:50:00,
2013-04-21 04:54:00,27.9,27.9,30.61,NE,45,0.0,2.0,0,0.00,,,0.00,meteohub,2013-04-21 08:54:00,
2013-04-21 04:55:00,27.7,27.7,30.61,NW,315,0.0,2.0,0,0.00,,,0.00,meteohub,2013-04-21 08:55:00,
2013-04-21 04:59:00,27.7,27.7,30.61,NE,45,2.0,2.0,0,0.00,,,0.00,meteohub,2013-04-21 08:59:00,
2013-04-21 05:00:00,27.7,27.7,30.61,North,0,1.0,2.0,0,0.00,,,0.00,meteohub,2013-04-21 09:00:00,
2013-04-21 05:01:00,27.7,27.7,30.61,North,0,1.0,4.0,0,0.00,,,0.00,meteohub,2013-04-21 09:01:00,
2013-04-21 05:04:00,27.7,27.7,30.61,North,0,1.0,4.0,0,0.00,,,0.00,meteohub,2013-04-21 09:04:00,
2013-04-21 05:06:00,27.7,27.7,30.61,North,0,1.0,4.0,0,0.00,,,0.00,meteohub,2013-04-21 09:06:00,
2013-04-21 05:07:00,27.5,27.5,30.61,North,0,0.0,4.0,0,0.00,,,0.00,meteohub,2013-04-21 09:07:00,
2013-04-21 05:10:00,27.5,27.5,30.61,East,90,1.0,4.0,0,0.00,,,0.00,meteohub,2013-04-21 09:10:00,
2013-04-21 05:11:00,27.5,27.5,30.61,NE,45,2.0,4.0,0,0.00,,,0.00,meteohub,2013-04-21 09:11:00,
2013-04-21 05:13:00,27.5,27.5,30.61,East,90,1.0,4.0,0,0.00,,,0.00,meteohub,2013-04-21 09:13:00,
2013-04-21 05:16:00,27.5,27.5,30.61,North,0,1.0,3.0,0,0.00,,,0.00,meteohub,2013-04-21 09:16:00,
2013-04-21 05:17:00,27.3,27.3,30.61,NE,45,0.0,3.0,0,0.00,,,0.00,meteohub,2013-04-21 09:17:00,
2013-04-21 05:18:00,27.3,27.3,30.61,NE,45,0.0,3.0,0,0.00,,,0.00,meteohub,2013-04-21 09:18:00,
2013-04-21 05:21:00,27.3,27.3,30.62,North,0,1.0,3.0,0,0.00,,,0.00,meteohub,2013-04-21 09:21:00,
2013-04-21 05:22:00,27.3,27.3,30.61,NE,45,1.0,3.0,0,0.00,,,0.00,meteohub,2013-04-21 09:22:00,
2013-04-21 05:23:00,27.3,27.3,30.61,NE,45,1.0,3.0,0,0.00,,,0.00,meteohub,2013-04-21 09:23:00,
2013-04-21 05:24:00,27.3,27.3,30.61,North,0,2.0,3.0,0,0.00,,,0.00,meteohub,2013-04-21 09:24:00,
2013-04-21 05:26:00,27.3,27.3,30.62,SE,135,1.0,3.0,0,0.00,,,0.00,meteohub,2013-04-21 09:26:00,
2013-04-21 05:28:00,27.3,27.3,30.61,North,0,1.0,3.0,0,0.00,,,0.00,meteohub,2013-04-21 09:28:00,
2013-04-21 05:29:00,27.1,27.1,30.62,NW,315,1.0,3.0,0,0.00,,,0.00,meteohub,2013-04-21 09:29:00,
2013-04-21 05:30:00,27.1,27.1,30.61,East,90,3.0,3.0,0,0.00,,,0.00,meteohub,2013-04-21 09:30:00,
2013-04-21 05:31:00,27.1,27.1,30.62,North,0,0.0,2.0,0,0.00,,,0.00,meteohub,2013-04-21 09:31:00,
2013-04-21 05:34:00,27.1,27.1,30.62,NE,45,0.0,2.0,0,0.00,,,0.00,meteohub,2013-04-21 09:34:00,
2013-04-21 05:37:00,27.0,27.0,30.62,North,0,2.0,3.0,0,0.00,,,0.00,meteohub,2013-04-21 09:37:00,
2013-04-21 05:39:00,27.0,27.0,30.62,NE,45,2.0,3.0,0,0.00,,,0.00,meteohub,2013-04-21 09:39:00,
2013-04-21 05:40:00,27.0,27.0,30.62,NW,315,1.0,3.0,0,0.00,,,0.00,meteohub,2013-04-21 09:40:00,
2013-04-21 05:43:00,27.0,27.0,30.62,NE,45,3.0,3.0,0,0.00,,,0.00,meteohub,2013-04-21 09:43:00,
2013-04-21 05:44:00,27.0,27.0,30.62,North,0,2.0,3.0,0,0.00,,,0.00,meteohub,2013-04-21 09:44:00,
2013-04-21 05:45:00,27.0,27.0,30.62,NE,45,1.0,3.0,0,0.00,,,0.00,meteohub,2013-04-21 09:45:00,
2013-04-21 05:46:00,27.0,27.0,30.62,NE,45,1.0,3.0,0,0.00,,,0.00,meteohub,2013-04-21 09:46:00,
2013-04-21 05:49:00,27.0,27.0,30.63,NE,45,1.0,3.0,0,0.00,,,0.00,meteohub,2013-04-21 09:49:00,
2013-04-21 05:51:00,27.0,27.0,30.62,North,0,2.0,3.0,0,0.00,,,0.00,meteohub,2013-04-21 09:51:00,
2013-04-21 05:52:00,27.0,27.0,30.62,North,0,2.0,3.0,0,0.00,,,0.00,meteohub,2013-04-21 09:52:00,
2013-04-21 05:57:00,27.1,27.1,30.63,East,90,3.0,4.0,0,0.00,,,0.00,meteohub,2013-04-21 09:57:00,
2013-04-21 05:58:00,27.1,27.1,30.63,East,90,2.0,4.0,0,0.00,,,0.00,meteohub,2013-04-21 09:58:00,
2013-04-21 06:02:00,27.1,27.1,30.63,North,0,1.0,4.0,0,0.00,,,0.00,meteohub,2013-04-21 10:02:00,
2013-04-21 06:03:00,27.1,27.1,30.63,North,0,1.0,4.0,0,0.00,,,0.00,meteohub,2013-04-21 10:03:00,
2013-04-21 06:04:00,27.1,27.1,30.63,North,0,1.0,4.0,0,0.00,,,0.00,meteohub,2013-04-21 10:04:00,
2013-04-21 06:08:00,27.0,27.0,30.63,North,0,2.0,4.0,0,0.00,,,0.00,meteohub,2013-04-21 10:08:00,
2013-04-21 06:09:00,27.0,27.0,30.63,North,0,4.0,4.0,0,0.00,,,0.00,meteohub,2013-04-21 10:09:00,
2013-04-21 06:11:00,27.1,27.1,30.63,North,0,3.0,4.0,0,0.00,,,0.00,meteohub,2013-04-21 10:11:00,
2013-04-21 06:13:00,27.1,27.1,30.63,NE,45,2.0,4.0,0,0.00,,,0.00,meteohub,2013-04-21 10:13:00,
2013-04-21 06:14:00,27.1,27.1,30.63,North,0,1.0,4.0,0,0.00,,,0.00,meteohub,2013-04-21 10:14:00,
2013-04-21 06:15:00,27.0,27.0,30.63,NE,45,2.0,4.0,0,0.00,,,0.00,meteohub,2013-04-21 10:15:00,
2013-04-21 06:17:00,27.0,27.0,30.64,NW,315,2.0,4.0,0,0.00,,,0.00,meteohub,2013-04-21 10:17:00,
2013-04-21 06:18:00,27.0,27.0,30.64,NW,315,0.0,4.0,0,0.00,,,0.00,meteohub,2013-04-21 10:18:00,
2013-04-21 06:19:00,27.0,27.0,30.64,East,90,3.0,4.0,0,0.00,,,0.00,meteohub,2013-04-21 10:19:00,
2013-04-21 06:20:00,27.0,27.0,30.64,NE,45,3.0,4.0,0,0.00,,,0.00,meteohub,2013-04-21 10:20:00,
2013-04-21 06:22:00,27.0,27.0,30.64,NE,45,1.0,4.0,0,0.00,,,0.00,meteohub,2013-04-21 10:22:00,
2013-04-21 06:24:00,27.0,27.0,30.64,North,0,3.0,4.0,0,0.00,,,0.00,meteohub,2013-04-21 10:24:00,
2013-04-21 06:25:00,27.0,27.0,30.64,North,0,2.0,4.0,0,0.00,,,0.00,meteohub,2013-04-21 10:25:00,
2013-04-21 06:26:00,27.1,27.1,30.64,NE,45,3.0,3.0,0,0.00,,,0.00,meteohub,2013-04-21 10:26:00,
2013-04-21 06:28:00,27.0,27.0,30.64,NE,45,2.0,3.0,0,0.00,,,0.00,meteohub,2013-04-21 10:28:00,
2013-04-21 06:30:00,27.0,27.0,30.64,North,0,2.0,3.0,0,0.00,,,0.00,meteohub,2013-04-21 10:30:00,
2013-04-21 06:33:00,27.0,27.0,30.65,NE,45,1.0,4.0,0,0.00,,,0.00,meteohub,2013-04-21 10:33:00,
2013-04-21 06:35:00,27.0,27.0,30.65,NE,45,2.0,4.0,0,0.00,,,0.00,meteohub,2013-04-21 10:35:00,
2013-04-21 06:36:00,27.0,27.0,30.65,NE,45,3.0,4.0,0,0.00,,,0.00,meteohub,2013-04-21 10:36:00,
2013-04-21 06:37:00,27.0,27.0,30.64,North,0,1.0,4.0,0,0.00,,,0.00,meteohub,2013-04-21 10:37:00,
2013-04-21 06:38:00,26.8,26.8,30.65,North,0,1.0,4.0,0,0.00,,,0.00,meteohub,2013-04-21 10:38:00,
2013-04-21 06:39:00,26.8,26.8,30.65,North,0,2.0,4.0,0,0.00,,,0.00,meteohub,2013-04-21 10:39:00,
2013-04-21 06:41:00,26.8,26.8,30.65,NW,315,2.0,3.0,0,0.00,,,0.00,meteohub,2013-04-21 10:41:00,
2013-04-21 06:42:00,26.8,26.8,30.65,NE,45,2.0,3.0,0,0.00,,,0.00,meteohub,2013-04-21 10:42:00,
2013-04-21 06:44:00,26.8,26.8,30.66,North,0,3.0,3.0,0,0.00,,,0.00,meteohub,2013-04-21 10:44:00,
2013-04-21 06:45:00,27.0,27.0,30.66,NW,315,2.0,3.0,0,0.00,,,0.00,meteohub,2013-04-21 10:45:00,
2013-04-21 06:46:00,27.0,27.0,30.66,NW,315,2.0,3.0,0,0.00,,,0.00,meteohub,2013-04-21 10:46:00,
2013-04-21 06:47:00,27.0,27.0,30.66,North,0,2.0,3.0,0,0.00,,,0.00,meteohub,2013-04-21 10:47:00,
2013-04-21 06:48:00,27.0,27.0,30.66,North,0,2.0,3.0,0,0.00,,,0.00,meteohub,2013-04-21 10:48:00,
2013-04-21 06:50:00,27.0,27.0,30.66,NE,45,1.0,3.0,0,0.00,,,0.00,meteohub,2013-04-21 10:50:00,
2013-04-21 06:51:00,27.0,27.0,30.66,NE,45,2.0,3.0,0,0.00,,,0.00,meteohub,2013-04-21 10:51:00,
2013-04-21 06:52:00,27.0,27.0,30.66,North,0,2.0,3.0,0,0.00,,,0.00,meteohub,2013-04-21 10:52:00,
2013-04-21 06:53:00,27.0,27.0,30.66,South,180,2.0,3.0,0,0.00,,,0.00,meteohub,2013-04-21 10:53:00,
2013-04-21 06:55:00,27.0,27.0,30.66,NE,45,2.0,3.0,0,0.00,,,0.00,meteohub,2013-04-21 10:55:00,
2013-04-21 06:56:00,27.0,27.0,30.66,North,0,4.0,4.0,0,0.00,,,0.00,meteohub,2013-04-21 10:56:00,
2013-04-21 06:58:00,27.1,27.1,30.66,NE,45,3.0,3.0,0,0.00,,,0.00,meteohub,2013-04-21 10:58:00,
2013-04-21 07:01:00,27.1,27.1,30.67,NE,45,2.0,4.0,0,0.00,,,0.00,meteohub,2013-04-21 11:01:00,
2013-04-21 07:03:00,27.3,27.3,30.67,West,270,2.0,4.0,0,0.00,,,0.00,meteohub,2013-04-21 11:03:00,
2013-04-21 07:05:00,27.3,27.3,30.67,NE,45,3.0,4.0,0,0.00,,,0.00,meteohub,2013-04-21 11:05:00,
2013-04-21 07:06:00,27.3,27.3,30.67,North,0,2.0,4.0,0,0.00,,,0.00,meteohub,2013-04-21 11:06:00,
2013-04-21 07:07:00,27.3,27.3,30.67,NE,45,4.0,4.0,0,0.00,,,0.00,meteohub,2013-04-21 11:07:00,
2013-04-21 07:08:00,27.3,27.3,30.67,NE,45,2.0,4.0,0,0.00,,,0.00,meteohub,2013-04-21 11:08:00,
2013-04-21 07:09:00,27.3,27.3,30.67,North,0,2.0,4.0,0,0.00,,,0.00,meteohub,2013-04-21 11:09:00,
2013-04-21 07:11:00,27.5,27.5,30.67,NE,45,4.0,4.0,0,0.00,,,0.00,meteohub,2013-04-21 11:11:00,
2013-04-21 07:12:00,27.5,27.5,30.67,NE,45,3.0,4.0,0,0.00,,,0.00,meteohub,2013-04-21 11:12:00,
2013-04-21 07:13:00,27.7,27.7,30.67,NE,45,2.0,4.0,0,0.00,,,0.00,meteohub,2013-04-21 11:13:00,
2013-04-21 07:14:00,27.7,27.7,30.67,North,0,4.0,4.0,0,0.00,,,0.00,meteohub,2013-04-21 11:14:00,
2013-04-21 07:15:00,27.7,27.7,30.67,North,0,4.0,4.0,0,0.00,,,0.00,meteohub,2013-04-21 11:15:00,
2013-04-21 07:17:00,27.7,27.7,30.67,North,0,2.0,5.0,0,0.00,,,0.00,meteohub,2013-04-21 11:17:00,
2013-04-21 07:19:00,27.9,27.9,30.68,NE,45,2.0,5.0,0,0.00,,,0.00,meteohub,2013-04-21 11:19:00,
2013-04-21 07:21:00,28.0,28.0,30.68,North,0,5.0,5.0,0,0.00,,,0.00,meteohub,2013-04-21 11:21:00,
2013-04-21 07:22:00,28.0,28.0,30.68,North,0,5.0,5.0,0,0.00,,,0.00,meteohub,2013-04-21 11:22:00,
2013-04-21 07:23:00,28.2,28.2,30.68,NE,45,2.0,5.0,0,0.00,,,0.00,meteohub,2013-04-21 11:23:00,
2013-04-21 07:24:00,28.2,28.2,30.68,NE,45,2.0,5.0,0,0.00,,,0.00,meteohub,2013-04-21 11:24:00,
2013-04-21 07:27:00,28.6,28.6,30.68,North,0,2.0,5.0,0,0.00,,,0.00,meteohub,2013-04-21 11:27:00,
2013-04-21 07:28:00,28.8,28.8,30.68,NE,45,2.0,5.0,0,0.00,,,0.00,meteohub,2013-04-21 11:28:00,
2013-04-21 07:30:00,28.9,28.9,30.68,North,0,4.0,5.0,0,0.00,,,0.00,meteohub,2013-04-21 11:30:00,
2013-04-21 07:31:00,28.9,28.9,30.68,North,0,4.0,5.0,0,0.00,,,0.00,meteohub,2013-04-21 11:31:00,
2013-04-21 07:32:00,29.3,29.3,30.68,North,0,4.0,5.0,0,0.00,,,0.00,meteohub,2013-04-21 11:32:00,
2013-04-21 07:33:00,29.3,29.3,30.68,North,0,4.0,5.0,0,0.00,,,0.00,meteohub,2013-04-21 11:33:00,
2013-04-21 07:34:00,29.3,29.3,30.68,NE,45,5.0,5.0,0,0.00,,,0.00,meteohub,2013-04-21 11:34:00,
2013-04-21 07:35:00,29.3,29.3,30.68,NE,45,8.0,8.0,0,0.00,,,0.00,meteohub,2013-04-21 11:35:00,
2013-04-21 07:36:00,29.7,29.7,30.68,North,0,3.0,6.0,0,0.00,,,0.00,meteohub,2013-04-21 11:36:00,
2013-04-21 07:39:00,30.2,30.2,30.68,East,90,3.0,6.0,0,0.00,,,0.00,meteohub,2013-04-21 11:39:00,
2013-04-21 07:40:00,30.6,30.6,30.69,North,0,2.0,6.0,0,0.00,,,0.00,meteohub,2013-04-21 11:40:00,
2013-04-21 07:41:00,31.1,31.1,30.68,NW,315,2.0,8.0,0,0.00,,,0.00,meteohub,2013-04-21 11:41:00,
2013-04-21 07:44:00,31.8,31.8,30.69,North,0,4.0,8.0,0,0.00,,,0.00,meteohub,2013-04-21 11:44:00,
2013-04-21 07:45:00,32.2,32.2,30.69,North,0,3.0,8.0,0,0.00,,,0.00,meteohub,2013-04-21 11:45:00,
2013-04-21 07:46:00,32.2,32.2,30.69,North,0,3.0,8.0,0,0.00,,,0.00,meteohub,2013-04-21 11:46:00,
2013-04-21 07:47:00,32.4,32.4,30.69,North,0,8.0,8.0,0,0.00,,,0.00,meteohub,2013-04-21 11:47:00,
2013-04-21 07:50:00,32.4,32.4,30.69,NE,45,4.0,8.0,0,0.00,,,0.00,meteohub,2013-04-21 11:50:00,
2013-04-21 07:51:00,32.4,32.4,30.69,NE,45,4.0,8.0,0,0.00,,,0.00,meteohub,2013-04-21 11:51:00,
2013-04-21 07:52:00,32.5,32.5,30.69,East,90,4.0,8.0,0,0.00,,,0.00,meteohub,2013-04-21 11:52:00,
2013-04-21 07:53:00,32.5,32.5,30.69,NE,45,11.0,11.0,0,0.00,,,0.00,meteohub,2013-04-21 11:53:00,
2013-04-21 07:55:00,32.4,32.4,30.69,East,90,7.0,11.0,0,0.00,,,0.00,meteohub,2013-04-21 11:55:00,
2013-04-21 07:58:00,32.5,32.5,30.69,East,90,1.0,11.0,0,0.00,,,0.00,meteohub,2013-04-21 11:58:00,
2013-04-21 08:00:00,32.9,32.9,30.69,NE,45,4.0,11.0,0,0.00,,,0.00,meteohub,2013-04-21 12:00:00,
2013-04-21 08:01:00,33.1,33.1,30.69,NE,45,3.0,11.0,0,0.00,,,0.00,meteohub,2013-04-21 12:01:00,
2013-04-21 08:03:00,33.3,33.3,30.69,East,90,5.0,11.0,0,0.00,,,0.00,meteohub,2013-04-21 12:03:00,
2013-04-21 08:05:00,33.4,33.4,30.69,East,90,4.0,11.0,0,0.00,,,0.00,meteohub,2013-04-21 12:05:00,
2013-04-21 08:06:00,33.6,33.6,30.70,North,0,4.0,11.0,0,0.00,,,0.00,meteohub,2013-04-21 12:06:00,
2013-04-21 08:07:00,33.6,33.6,30.69,NE,45,8.0,11.0,0,0.00,,,0.00,meteohub,2013-04-21 12:07:00,
2013-04-21 08:08:00,33.4,33.4,30.69,East,90,5.0,11.0,0,0.00,,,0.00,meteohub,2013-04-21 12:08:00,
2013-04-21 08:09:00,33.4,33.4,30.70,East,90,3.0,11.0,0,0.00,,,0.00,meteohub,2013-04-21 12:09:00,
2013-04-21 08:11:00,33.4,33.4,30.69,East,90,6.0,8.0,0,0.00,,,0.00,meteohub,2013-04-21 12:11:00,
2013-04-21 08:12:00,33.1,33.1,30.69,North,0,4.0,8.0,0,0.00,,,0.00,meteohub,2013-04-21 12:12:00,
2013-04-21 08:13:00,32.9,32.9,30.69,NE,45,8.0,8.0,0,0.00,,,0.00,meteohub,2013-04-21 12:13:00,
2013-04-21 08:15:00,32.9,32.9,30.69,NE,45,5.0,8.0,0,0.00,,,0.00,meteohub,2013-04-21 12:15:00,
2013-04-21 08:18:00,33.1,33.1,30.70,NE,45,8.0,8.0,0,0.00,,,0.00,meteohub,2013-04-21 12:18:00,
2013-04-21 08:19:00,33.3,33.3,30.70,East,90,5.0,8.0,0,0.00,,,0.00,meteohub,2013-04-21 12:19:00,
2013-04-21 08:20:00,33.3,33.3,30.69,East,90,5.0,8.0,0,0.00,,,0.00,meteohub,2013-04-21 12:20:00,
2013-04-21 08:23:00,33.3,33.3,30.70,East,90,9.0,9.0,0,0.00,,,0.00,meteohub,2013-04-21 12:23:00,
2013-04-21 08:24:00,33.3,33.3,30.70,East,90,9.0,9.0,0,0.00,,,0.00,meteohub,2013-04-21 12:24:00,
2013-04-21 08:25:00,33.1,33.1,30.70,North,0,9.0,9.0,0,0.00,,,0.00,meteohub,2013-04-21 12:25:00,
2013-04-21 08:26:00,33.1,33.1,30.70,North,0,9.0,9.0,0,0.00,,,0.00,meteohub,2013-04-21 12:26:00,
2013-04-21 08:27:00,33.1,33.1,30.70,NE,45,8.0,9.0,0,0.00,,,0.00,meteohub,2013-04-21 12:27:00,
2013-04-21 08:29:00,33.3,33.3,30.70,North,0,8.0,9.0,0,0.00,,,0.00,meteohub,2013-04-21 12:29:00,
2013-04-21 08:30:00,33.3,33.3,30.70,North,0,8.0,9.0,0,0.00,,,0.00,meteohub,2013-04-21 12:30:00,
2013-04-21 08:31:00,33.3,33.3,30.70,North,0,8.0,9.0,0,0.00,,,0.00,meteohub,2013-04-21 12:31:00,
2013-04-21 08:32:00,33.1,33.1,30.70,East,90,7.0,9.0,0,0.00,,,0.00,meteohub,2013-04-21 12:32:00,
2013-04-21 08:33:00,33.1,33.1,30.70,North,0,7.0,9.0,0,0.00,,,0.00,meteohub,2013-04-21 12:33:00,
2013-04-21 08:35:00,33.1,33.1,30.70,SE,135,6.0,9.0,0,0.00,,,0.00,meteohub,2013-04-21 12:35:00,
2013-04-21 08:36:00,33.3,33.3,30.71,East,90,7.0,9.0,0,0.00,,,0.00,meteohub,2013-04-21 12:36:00,
2013-04-21 08:37:00,33.3,33.3,30.70,North,0,4.0,9.0,0,0.00,,,0.00,meteohub,2013-04-21 12:37:00,
2013-04-21 08:38:00,33.4,33.4,30.71,East,90,6.0,9.0,0,0.00,,,0.00,meteohub,2013-04-21 12:38:00,
2013-04-21 08:40:00,33.4,33.4,30.70,West,270,5.0,9.0,0,0.00,,,0.00,meteohub,2013-04-21 12:40:00,
2013-04-21 08:41:00,33.4,33.4,30.70,NE,45,6.0,9.0,0,0.00,,,0.00,meteohub,2013-04-21 12:41:00,
2013-04-21 08:42:00,33.4,33.4,30.70,North,0,8.0,9.0,0,0.00,,,0.00,meteohub,2013-04-21 12:42:00,
2013-04-21 08:45:00,33.8,33.8,30.71,North,0,5.0,8.0,0,0.00,,,0.00,meteohub,2013-04-21 12:45:00,
2013-04-21 08:46:00,34.0,34.0,30.71,West,270,4.0,8.0,0,0.00,,,0.00,meteohub,2013-04-21 12:46:00,
2013-04-21 08:47:00,34.0,34.0,30.71,West,270,4.0,8.0,0,0.00,,,0.00,meteohub,2013-04-21 12:47:00,
2013-04-21 08:48:00,34.2,34.2,30.71,NE,45,6.0,8.0,0,0.00,,,0.00,meteohub,2013-04-21 12:48:00,
2013-04-21 08:51:00,34.9,34.9,30.71,East,90,4.0,8.0,0,0.00,,,0.00,meteohub,2013-04-21 12:51:00,
2013-04-21 08:52:00,35.1,35.1,30.71,East,90,4.0,8.0,0,0.00,,,0.00,meteohub,2013-04-21 12:52:00,
2013-04-21 08:53:00,35.2,35.2,30.71,NW,315,4.0,8.0,0,0.00,,,0.00,meteohub,2013-04-21 12:53:00,
2013-04-21 08:54:00,35.4,35.4,30.71,NW,315,4.0,8.0,0,0.00,,,0.00,meteohub,2013-04-21 12:54:00,
2013-04-21 08:58:00,35.6,35.6,30.71,East,90,5.0,8.0,0,0.00,,,0.00,meteohub,2013-04-21 12:58:00,
2013-04-21 08:59:00,35.6,35.6,30.71,East,90,5.0,8.0,0,0.00,,,0.00,meteohub,2013-04-21 12:59:00,
2013-04-21 09:00:00,35.6,35.6,30.71,East,90,6.0,8.0,0,0.00,,,0.00,meteohub,2013-04-21 13:00:00,
2013-04-21 09:04:00,34.9,34.9,30.71,East,90,4.0,7.0,0,0.00,,,0.00,meteohub,2013-04-21 13:04:00,
2013-04-21 09:05:00,34.9,34.9,30.71,WSW,248,2.0,7.0,0,0.00,,,0.00,meteohub,2013-04-21 13:05:00,
2013-04-21 09:06:00,35.1,35.1,30.71,NW,315,2.0,8.0,0,0.00,,,0.00,meteohub,2013-04-21 13:06:00,
2013-04-21 09:09:00,35.8,35.8,30.71,NE,45,2.0,8.0,0,0.00,,,0.00,meteohub,2013-04-21 13:09:00,
2013-04-21 09:10:00,35.8,35.8,30.71,NE,45,2.0,8.0,0,0.00,,,0.00,meteohub,2013-04-21 13:10:00,
2013-04-21 09:11:00,36.0,36.0,30.71,North,0,5.0,8.0,0,0.00,,,0.00,meteohub,2013-04-21 13:11:00,
2013-04-21 09:12:00,36.0,36.0,30.71,North,0,5.0,8.0,0,0.00,,,0.00,meteohub,2013-04-21 13:12:00,
2013-04-21 09:16:00,35.8,35.8,30.71,NW,315,3.0,8.0,0,0.00,,,0.00,meteohub,2013-04-21 13:16:00,
2013-04-21 09:17:00,36.0,36.0,30.71,North,0,2.0,8.0,0,0.00,,,0.00,meteohub,2013-04-21 13:17:00,
2013-04-21 09:18:00,36.3,36.3,30.71,North,0,4.0,8.0,0,0.00,,,0.00,meteohub,2013-04-21 13:18:00,
2013-04-21 09:21:00,36.5,36.5,30.72,WNW,293,5.0,6.0,0,0.00,,,0.00,meteohub,2013-04-21 13:21:00,
2013-04-21 09:22:00,36.3,36.3,30.72,North,0,10.0,10.0,0,0.00,,,0.00,meteohub,2013-04-21 13:22:00,
2013-04-21 09:23:00,36.3,36.3,30.71,North,0,9.0,9.0,0,0.00,,,0.00,meteohub,2013-04-21 13:23:00,
2013-04-21 09:24:00,36.3,36.3,30.71,NW,315,4.0,6.0,0,0.00,,,0.00,meteohub,2013-04-21 13:24:00,
2013-04-21 09:26:00,36.5,36.5,30.71,NE,45,2.0,10.0,0,0.00,,,0.00,meteohub,2013-04-21 13:26:00,
2013-04-21 09:27:00,37.0,37.0,30.71,NE,45,2.0,10.0,0,0.00,,,0.00,meteohub,2013-04-21 13:27:00,
2013-04-21 09:28:00,37.4,37.4,30.71,NW,315,2.0,10.0,0,0.00,,,0.00,meteohub,2013-04-21 13:28:00,
2013-04-21 09:29:00,37.4,37.4,30.71,North,0,4.0,10.0,0,0.00,,,0.00,meteohub,2013-04-21 13:29:00,
2013-04-21 09:30:00,37.4,37.4,30.71,North,0,4.0,10.0,0,0.00,,,0.00,meteohub,2013-04-21 13:30:00,
2013-04-21 09:31:00,37.6,37.6,30.71,North,0,2.0,10.0,0,0.00,,,0.00,meteohub,2013-04-21 13:31:00,
2013-04-21 09:32:00,37.8,37.8,30.71,North,0,3.0,10.0,0,0.00,,,0.00,meteohub,2013-04-21 13:32:00,
2013-04-21 09:34:00,38.1,38.1,30.71,West,270,4.0,10.0,0,0.00,,,0.00,meteohub,2013-04-21 13:34:00,
2013-04-21 09:35:00,38.1,38.1,30.71,East,90,2.0,10.0,0,0.00,,,0.00,meteohub,2013-04-21 13:35:00,
2013-04-21 09:36:00,38.3,38.3,30.71,North,0,3.0,10.0,0,0.00,,,0.00,meteohub,2013-04-21 13:36:00,
2013-04-21 09:37:00,38.5,38.5,30.72,NE,45,4.0,10.0,0,0.00,,,0.00,meteohub,2013-04-21 13:37:00,
2013-04-21 09:40:00,37.8,37.8,30.71,NE,45,11.0,11.0,0,0.00,,,0.00,meteohub,2013-04-21 13:40:00,
2013-04-21 09:41:00,37.4,37.4,30.71,West,270,6.0,6.0,0,0.00,,,0.00,meteohub,2013-04-21 13:41:00,
2013-04-21 09:42:00,37.4,37.4,30.71,West,270,6.0,6.0,0,0.00,,,0.00,meteohub,2013-04-21 13:42:00,
2013-04-21 09:43:00,37.2,37.2,30.71,NE,45,5.0,5.0,0,0.00,,,0.00,meteohub,2013-04-21 13:43:00,
2013-04-21 09:46:00,37.0,37.0,30.72,SE,135,8.0,11.0,0,0.00,,,0.00,meteohub,2013-04-21 13:46:00,
2013-04-21 09:47:00,36.9,36.9,30.71,North,0,7.0,11.0,0,0.00,,,0.00,meteohub,2013-04-21 13:47:00,
2013-04-21 09:48:00,36.9,36.9,30.71,North,0,4.0,11.0,0,0.00,,,0.00,meteohub,2013-04-21 13:48:00,
2013-04-21 09:49:00,37.0,37.0,30.71,North,0,3.0,11.0,0,0.00,,,0.00,meteohub,2013-04-21 13:49:00,
2013-04-21 09:52:00,37.4,37.4,30.71,NW,315,5.0,11.0,0,0.00,,,0.00,meteohub,2013-04-21 13:52:00,
2013-04-21 09:53:00,37.4,37.4,30.72,West,270,6.0,11.0,0,0.00,,,0.00,meteohub,2013-04-21 13:53:00,
2013-04-21 09:54:00,37.4,37.4,30.72,North,0,3.0,11.0,0,0.00,,,0.00,meteohub,2013-04-21 13:54:00,
2013-04-21 09:57:00,37.9,37.9,30.72,NW,315,4.0,11.0,0,0.00,,,0.00,meteohub,2013-04-21 13:57:00,
2013-04-21 09:58:00,38.1,38.1,30.71,NE,45,7.0,11.0,0,0.00,,,0.00,meteohub,2013-04-21 13:58:00,
2013-04-21 09:59:00,38.3,38.3,30.72,North,0,5.0,11.0,0,0.00,,,0.00,meteohub,2013-04-21 13:59:00,
2013-04-21 10:00:00,38.3,38.3,30.72,North,0,5.0,11.0,0,0.00,,,0.00,meteohub,2013-04-21 14:00:00,
2013-04-21 10:02:00,37.9,37.9,30.72,NE,45,4.0,8.0,0,0.00,,,0.00,meteohub,2013-04-21 14:02:00,
2013-04-21 10:03:00,37.8,37.8,30.72,North,0,5.0,8.0,0,0.00,,,0.00,meteohub,2013-04-21 14:03:00,
2013-04-21 10:05:00,37.8,37.8,30.72,North,0,4.0,8.0,0,0.00,,,0.00,meteohub,2013-04-21 14:05:00,
2013-04-21 10:06:00,37.8,37.8,30.72,NE,45,3.0,7.0,0,0.00,,,0.00,meteohub,2013-04-21 14:06:00,
2013-04-21 10:08:00,38.5,38.5,30.72,South,180,2.0,7.0,0,0.00,,,0.00,meteohub,2013-04-21 14:08:00,
2013-04-21 10:09:00,38.8,38.8,30.72,NE,45,1.0,7.0,0,0.00,,,0.00,meteohub,2013-04-21 14:09:00,
2013-04-21 10:11:00,39.6,39.6,30.72,NE,45,5.0,7.0,0,0.00,,,0.00,meteohub,2013-04-21 14:11:00,
2013-04-21 10:13:00,39.2,39.2,30.72,East,90,5.0,7.0,0,0.00,,,0.00,meteohub,2013-04-21 14:13:00,
2013-04-21 10:14:00,38.7,38.7,30.72,NE,45,8.0,8.0,0,0.00,,,0.00,meteohub,2013-04-21 14:14:00,
2013-04-21 10:17:00,38.5,38.5,30.72,NE,45,3.0,9.0,0,0.00,,,0.00,meteohub,2013-04-21 14:17:00,
2013-04-21 10:18:00,38.5,38.5,30.72,NE,45,3.0,9.0,0,0.00,,,0.00,meteohub,2013-04-21 14:18:00,
2013-04-21 10:19:00,38.5,38.5,30.72,NE,45,7.0,9.0,0,0.00,,,0.00,meteohub,2013-04-21 14:19:00,
2013-04-21 10:20:00,38.1,38.1,30.72,North,0,8.0,9.0,0,0.00,,,0.00,meteohub,2013-04-21 14:20:00,
2013-04-21 10:24:00,37.6,37.6,30.72,South,180,2.0,9.0,0,0.00,,,0.00,meteohub,2013-04-21 14:24:00,
2013-04-21 10:25:00,37.8,37.8,30.72,NE,45,3.0,9.0,0,0.00,,,0.00,meteohub,2013-04-21 14:25:00,
2013-04-21 10:26:00,37.9,37.9,30.72,NE,45,4.0,9.0,0,0.00,,,0.00,meteohub,2013-04-21 14:26:00,
2013-04-21 10:29:00,38.1,38.1,30.72,North,0,6.0,9.0,0,0.00,,,0.00,meteohub,2013-04-21 14:29:00,
2013-04-21 10:30:00,37.9,37.9,30.72,North,0,4.0,9.0,0,0.00,,,0.00,meteohub,2013-04-21 14:30:00,
2013-04-21 10:31:00,37.9,37.9,30.72,North,0,4.0,8.0,0,0.00,,,0.00,meteohub,2013-04-21 14:31:00,
2013-04-21 10:32:00,37.9,37.9,30.72,NW,315,4.0,8.0,0,0.00,,,0.00,meteohub,2013-04-21 14:32:00,
2013-04-21 10:34:00,39.0,39.0,30.72,SW,225,6.0,8.0,0,0.00,,,0.00,meteohub,2013-04-21 14:34:00,
2013-04-21 10:35:00,39.0,39.0,30.72,SW,225,6.0,8.0,0,0.00,,,0.00,meteohub,2013-04-21 14:35:00,
2013-04-21 10:36:00,39.2,39.2,30.72,SE,135,2.0,8.0,0,0.00,,,0.00,meteohub,2013-04-21 14:36:00,
2013-04-21 10:38:00,39.6,39.6,30.72,WSW,248,4.0,8.0,0,0.00,,,0.00,meteohub,2013-04-21 14:38:00,
2013-04-21 10:39:00,39.7,39.7,30.72,NE,45,9.0,9.0,0,0.00,,,0.00,meteohub,2013-04-21 14:39:00,
2013-04-21 10:40:00,39.6,39.6,30.72,East,90,8.0,8.0,0,0.00,,,0.00,meteohub,2013-04-21 14:40:00,
2013-04-21 10:42:00,39.7,39.7,30.71,SE,135,4.0,6.0,0,0.00,,,0.00,meteohub,2013-04-21 14:42:00,
2013-04-21 10:43:00,39.7,39.7,30.72,NE,45,5.0,6.0,0,0.00,,,0.00,meteohub,2013-04-21 14:43:00,
2013-04-21 10:44:00,39.7,39.7,30.72,NE,45,4.0,6.0,0,0.00,,,0.00,meteohub,2013-04-21 14:44:00,
2013-04-21 10:46:00,39.6,39.6,30.72,East,90,5.0,9.0,0,0.00,,,0.00,meteohub,2013-04-21 14:46:00,
2013-04-21 10:47:00,39.6,39.6,30.72,East,90,5.0,9.0,0,0.00,,,0.00,meteohub,2013-04-21 14:47:00,
2013-04-21 10:49:00,39.6,39.6,30.72,North,0,5.0,9.0,0,0.00,,,0.00,meteohub,2013-04-21 14:49:00,
2013-04-21 10:51:00,40.1,40.1,30.72,East,90,2.0,9.0,0,0.00,,,0.00,meteohub,2013-04-21 14:51:00,
2013-04-21 10:52:00,40.8,40.8,30.72,North,0,2.0,9.0,0,0.00,,,0.00,meteohub,2013-04-21 14:52:00,
2013-04-21 10:53:00,41.0,41.0,30.72,North,0,6.0,9.0,0,0.00,,,0.00,meteohub,2013-04-21 14:53:00,
2013-04-21 10:54:00,41.0,41.0,30.72,North,0,6.0,9.0,0,0.00,,,0.00,meteohub,2013-04-21 14:54:00,
2013-04-21 10:56:00,41.2,41.2,30.72,NE,45,7.0,8.0,0,0.00,,,0.00,meteohub,2013-04-21 14:56:00,
2013-04-21 10:57:00,41.2,41.2,30.72,East,90,2.0,8.0,0,0.00,,,0.00,meteohub,2013-04-21 14:57:00,
2013-04-21 10:58:00,41.2,41.2,30.72,East,90,2.0,8.0,0,0.00,,,0.00,meteohub,2013-04-21 14:58:00,
2013-04-21 10:59:00,41.4,41.4,30.72,South,180,2.0,8.0,0,0.00,,,0.00,meteohub,2013-04-21 14:59:00,
2013-04-21 11:00:00,41.5,41.5,30.72,NE,45,2.0,8.0,0,0.00,,,0.00,meteohub,2013-04-21 15:00:00,
2013-04-21 11:02:00,41.5,41.5,30.72,North,0,3.0,7.0,0,0.00,,,0.00,meteohub,2013-04-21 15:02:00,
2013-04-21 11:03:00,41.5,41.5,30.72,East,90,5.0,7.0,0,0.00,,,0.00,meteohub,2013-04-21 15:03:00,
2013-04-21 11:04:00,41.4,41.4,30.71,NE,45,7.0,7.0,0,0.00,,,0.00,meteohub,2013-04-21 15:04:00,
2013-04-21 11:05:00,41.4,41.4,30.72,NE,45,8.0,8.0,0,0.00,,,0.00,meteohub,2013-04-21 15:05:00,
2013-04-21 11:06:00,41.0,41.0,30.72,North,0,11.0,11.0,0,0.00,,,0.00,meteohub,2013-04-21 15:06:00,
2013-04-21 11:07:00,40.3,40.3,30.72,NE,45,6.0,7.0,0,0.00,,,0.00,meteohub,2013-04-21 15:07:00,
2013-04-21 11:09:00,40.3,40.3,30.72,NE,45,6.0,7.0,0,0.00,,,0.00,meteohub,2013-04-21 15:09:00,
2013-04-21 11:11:00,40.5,40.5,30.72,NW,315,4.0,11.0,0,0.00,,,0.00,meteohub,2013-04-21 15:11:00,
2013-04-21 11:12:00,40.6,40.6,30.72,North,0,2.0,11.0,0,0.00,,,0.00,meteohub,2013-04-21 15:12:00,
2013-04-21 11:14:00,41.5,41.5,30.72,NE,45,6.0,11.0,0,0.00,,,0.00,meteohub,2013-04-21 15:14:00,
2013-04-21 11:16:00,41.5,41.5,30.72,NE,45,6.0,11.0,0,0.00,,,0.00,meteohub,2013-04-21 15:16:00,
2013-04-21 11:18:00,41.7,41.7,30.72,NW,315,5.0,11.0,0,0.00,,,0.00,meteohub,2013-04-21 15:18:00,
2013-04-21 11:20:00,41.0,41.0,30.72,North,0,4.0,11.0,0,0.00,,,0.00,meteohub,2013-04-21 15:20:00,
2013-04-21 11:21:00,41.0,41.0,30.71,North,0,4.0,11.0,0,0.00,,,0.00,meteohub,2013-04-21 15:21:00,
2013-04-21 11:23:00,41.2,41.2,30.71,NE,45,4.0,11.0,0,0.00,,,0.00,meteohub,2013-04-21 15:23:00,
2013-04-21 11:25:00,41.4,41.4,30.72,NW,315,8.0,8.0,0,0.00,,,0.00,meteohub,2013-04-21 15:25:00,
2013-04-21 11:26:00,41.2,41.2,30.72,North,0,6.0,8.0,0,0.00,,,0.00,meteohub,2013-04-21 15:26:00,
2013-04-21 11:28:00,40.8,40.8,30.72,East,90,5.0,8.0,0,0.00,,,0.00,meteohub,2013-04-21 15:28:00,
2013-04-21 11:30:00,41.0,41.0,30.72,WSW,248,4.0,8.0,0,0.00,,,0.00,meteohub,2013-04-21 15:30:00,
2013-04-21 11:31:00,41.4,41.4,30.72,North,0,4.0,8.0,0,0.00,,,0.00,meteohub,2013-04-21 15:31:00,
2013-04-21 11:32:00,41.5,41.5,30.72,North,0,7.0,8.0,0,0.00,,,0.00,meteohub,2013-04-21 15:32:00,
2013-04-21 11:33:00,41.4,41.4,30.72,NW,315,8.0,8.0,0,0.00,,,0.00,meteohub,2013-04-21 15:33:00,
2013-04-21 11:37:00,42.1,42.1,30.72,North,0,1.0,8.0,0,0.00,,,0.00,meteohub,2013-04-21 15:37:00,
2013-04-21 11:38:00,42.4,42.4,30.71,NW,315,4.0,8.0,0,0.00,,,0.00,meteohub,2013-04-21 15:38:00,
2013-04-21 11:39:00,42.4,42.4,30.71,NW,315,4.0,8.0,0,0.00,,,0.00,meteohub,2013-04-21 15:39:00,
2013-04-21 11:42:00,42.1,42.1,30.72,North,0,4.0,8.0,0,0.00,,,0.00,meteohub,2013-04-21 15:42:00,
2013-04-21 11:44:00,41.9,41.9,30.72,NW,315,8.0,8.0,0,0.00,,,0.00,meteohub,2013-04-21 15:44:00,
2013-04-21 11:45:00,41.9,41.9,30.72,NW,315,6.0,8.0,0,0.00,,,0.00,meteohub,2013-04-21 15:45:00,
2013-04-21 11:47:00,41.7,41.7,30.72,West,270,8.0,12.0,0,0.00,,,0.00,meteohub,2013-04-21 15:47:00,
2013-04-21 11:49:00,41.9,41.9,30.72,NE,45,4.0,12.0,0,0.00,,,0.00,meteohub,2013-04-21 15:49:00,
2013-04-21 11:51:00,41.9,41.9,30.71,North,0,2.0,12.0,0,0.00,,,0.00,meteohub,2013-04-21 15:51:00,
2013-04-21 11:53:00,42.3,42.3,30.71,North,0,4.0,12.0,0,0.00,,,0.00,meteohub,2013-04-21 15:53:00,
2013-04-21 11:54:00,42.4,42.4,30.72,NW,315,8.0,12.0,0,0.00,,,0.00,meteohub,2013-04-21 15:54:00,
2013-04-21 11:56:00,42.4,42.4,30.71,West,270,4.0,12.0,0,0.00,,,0.00,meteohub,2013-04-21 15:56:00,
2013-04-21 11:57:00,42.6,42.6,30.71,West,270,4.0,12.0,0,0.00,,,0.00,meteohub,2013-04-21 15:57:00,
2013-04-21 12:00:00,42.4,42.4,30.71,East,90,7.0,12.0,0,0.00,,,0.00,meteohub,2013-04-21 16:00:00,
2013-04-21 12:01:00,42.4,42.4,30.71,East,90,7.0,8.0,0,0.00,,,0.00,meteohub,2013-04-21 16:01:00,
2013-04-21 12:02:00,42.3,42.3,30.71,NE,45,8.0,8.0,0,0.00,,,0.00,meteohub,2013-04-21 16:02:00,
2013-04-21 12:03:00,42.3,42.3,30.71,NE,45,8.0,8.0,0,0.00,,,0.00,meteohub,2013-04-21 16:03:00,
2013-04-21 12:05:00,41.9,41.9,30.71,NE,45,9.0,9.0,0,0.00,,,0.00,meteohub,2013-04-21 16:05:00,
2013-04-21 12:07:00,41.7,41.7,30.71,East,90,9.0,9.0,0,0.00,,,0.00,meteohub,2013-04-21 16:07:00,
2013-04-21 12:08:00,41.5,41.5,30.71,East,90,6.0,8.0,0,0.00,,,0.00,meteohub,2013-04-21 16:08:00,
2013-04-21 12:09:00,41.5,41.5,30.71,NW,315,4.0,8.0,0,0.00,,,0.00,meteohub,2013-04-21 16:09:00,
2013-04-21 12:10:00,41.7,41.7,30.71,East,90,7.0,9.0,0,0.00,,,0.00,meteohub,2013-04-21 16:10:00,
2013-04-21 12:13:00,42.1,42.1,30.71,North,0,9.0,9.0,0,0.00,,,0.00,meteohub,2013-04-21 16:13:00,
2013-04-21 12:15:00,42.1,42.1,30.71,East,90,7.0,9.0,0,0.00,,,0.00,meteohub,2013-04-21 16:15:00,
2013-04-21 12:16:00,42.1,42.1,30.71,NE,45,5.0,9.0,0,0.00,,,0.00,meteohub,2013-04-21 16:16:00,
2013-04-21 12:18:00,42.1,42.1,30.71,East,90,6.0,9.0,0,0.00,,,0.00,meteohub,2013-04-21 16:18:00,
2013-04-21 12:20:00,41.9,41.9,30.71,North,0,5.0,9.0,0,0.00,,,0.00,meteohub,2013-04-21 16:20:00,
2013-04-21 12:21:00,42.1,42.1,30.71,NE,45,8.0,9.0,0,0.00,,,0.00,meteohub,2013-04-21 16:21:00,
2013-04-21 12:24:00,42.8,42.8,30.71,NW,315,3.0,9.0,0,0.00,,,0.00,meteohub,2013-04-21 16:24:00,
2013-04-21 12:25:00,42.8,42.8,30.70,North,0,8.0,9.0,0,0.00,,,0.00,meteohub,2013-04-21 16:25:00,
2013-04-21 12:26:00,43.0,43.0,30.71,North,0,4.0,9.0,0,0.00,,,0.00,meteohub,2013-04-21 16:26:00,
2013-04-21 12:27:00,43.0,43.0,30.70,WSW,248,2.0,9.0,0,0.00,,,0.00,meteohub,2013-04-21 16:27:00,
2013-04-21 12:29:00,43.5,43.5,30.70,NE,45,4.0,9.0,0,0.00,,,0.00,meteohub,2013-04-21 16:29:00,
2013-04-21 12:31:00,43.5,43.5,30.71,NE,45,4.0,8.0,0,0.00,,,0.00,meteohub,2013-04-21 16:31:00,
2013-04-21 12:32:00,44.1,44.1,30.70,NE,45,8.0,8.0,0,0.00,,,0.00,meteohub,2013-04-21 16:32:00,
2013-04-21 12:34:00,43.9,43.9,30.70,East,90,4.0,8.0,0,0.00,,,0.00,meteohub,2013-04-21 16:34:00,
2013-04-21 12:36:00,44.1,44.1,30.70,East,90,8.0,8.0,0,0.00,,,0.00,meteohub,2013-04-21 16:36:00,
2013-04-21 12:38:00,44.1,44.1,30.70,North,0,6.0,8.0,0,0.00,,,0.00,meteohub,2013-04-21 16:38:00,
2013-04-21 12:39:00,44.2,44.2,30.71,NW,315,2.0,8.0,0,0.00,,,0.00,meteohub,2013-04-21 16:39:00,
2013-04-21 12:40:00,44.4,44.4,30.70,West,270,2.0,8.0,0,0.00,,,0.00,meteohub,2013-04-21 16:40:00,
2013-04-21 12:41:00,44.8,44.8,30.70,SE,135,1.0,8.0,0,0.00,,,0.00,meteohub,2013-04-21 16:41:00,
2013-04-21 12:42:00,45.3,45.3,30.70,West,270,2.0,8.0,0,0.00,,,0.00,meteohub,2013-04-21 16:42:00,
2013-04-21 12:44:00,45.3,45.3,30.70,North,0,4.0,8.0,0,0.00,,,0.00,meteohub,2013-04-21 16:44:00,
2013-04-21 12:45:00,45.3,45.3,30.70,East,90,4.0,8.0,0,0.00,,,0.00,meteohub,2013-04-21 16:45:00,
2013-04-21 12:47:00,45.5,45.5,30.70,East,90,4.0,8.0,0,0.00,,,0.00,meteohub,2013-04-21 16:47:00,
2013-04-21 12:48:00,45.5,45.5,30.70,East,90,4.0,8.0,0,0.00,,,0.00,meteohub,2013-04-21 16:48:00,
2013-04-21 12:49:00,45.3,45.3,30.70,NE,45,8.0,8.0,0,0.00,,,0.00,meteohub,2013-04-21 16:49:00,
2013-04-21 12:50:00,44.8,44.8,30.70,SE,135,8.0,8.0,0,0.00,,,0.00,meteohub,2013-04-21 16:50:00,
2013-04-21 12:51:00,44.8,44.8,30.70,South,180,4.0,8.0,0,0.00,,,0.00,meteohub,2013-04-21 16:51:00,
2013-04-21 12:53:00,45.0,45.0,30.70,NE,45,7.0,8.0,0,0.00,,,0.00,meteohub,2013-04-21 16:53:00,
2013-04-21 12:54:00,45.0,45.0,30.70,East,90,6.0,8.0,0,0.00,,,0.00,meteohub,2013-04-21 16:54:00,
2013-04-21 12:55:00,45.0,45.0,30.70,East,90,4.0,8.0,0,0.00,,,0.00,meteohub,2013-04-21 16:55:00,
2013-04-21 12:56:00,45.1,45.1,30.70,WSW,248,5.0,8.0,0,0.00,,,0.00,meteohub,2013-04-21 16:56:00,
2013-04-21 12:59:00,44.6,44.6,30.70,SE,135,6.0,8.0,0,0.00,,,0.00,meteohub,2013-04-21 16:59:00,
2013-04-21 13:00:00,44.6,44.6,30.70,SE,135,6.0,9.0,0,0.00,,,0.00,meteohub,2013-04-21 17:00:00,
2013-04-21 13:01:00,44.6,44.6,30.70,SE,135,6.0,9.0,0,0.00,,,0.00,meteohub,2013-04-21 17:01:00,
2013-04-21 13:02:00,44.4,44.4,30.69,SE,135,6.0,9.0,0,0.00,,,0.00,meteohub,2013-04-21 17:02:00,
2013-04-21 13:05:00,44.6,44.6,30.69,WSW,248,3.0,9.0,0,0.00,,,0.00,meteohub,2013-04-21 17:05:00,
2013-04-21 13:06:00,44.6,44.6,30.69,WSW,248,3.0,9.0,0,0.00,,,0.00,meteohub,2013-04-21 17:06:00,
2013-04-21 13:07:00,44.6,44.6,30.70,South,180,7.0,9.0,0,0.00,,,0.00,meteohub,2013-04-21 17:07:00,
2013-04-21 13:09:00,44.6,44.6,30.69,South,180,3.0,9.0,0,0.00,,,0.00,meteohub,2013-04-21 17:09:00,
2013-04-21 13:10:00,44.6,44.6,30.69,North,0,4.0,9.0,0,0.00,,,0.00,meteohub,2013-04-21 17:10:00,
2013-04-21 13:12:00,44.8,44.8,30.69,SE,135,2.0,9.0,0,0.00,,,0.00,meteohub,2013-04-21 17:12:00,
2013-04-21 13:13:00,45.1,45.1,30.69,WSW,248,2.0,9.0,0,0.00,,,0.00,meteohub,2013-04-21 17:13:00,
2013-04-21 13:15:00,45.3,45.3,30.69,North,0,5.0,7.0,0,0.00,,,0.00,meteohub,2013-04-21 17:15:00,
2013-04-21 13:17:00,45.5,45.5,30.69,North,0,2.0,7.0,0,0.00,,,0.00,meteohub,2013-04-21 17:17:00,
2013-04-21 13:18:00,45.7,45.7,30.69,NW,315,4.0,7.0,0,0.00,,,0.00,meteohub,2013-04-21 17:18:00,
2013-04-21 13:20:00,45.7,45.7,30.69,South,180,4.0,8.0,0,0.00,,,0.00,meteohub,2013-04-21 17:20:00,
2013-04-21 13:22:00,45.7,45.7,30.69,SE,135,10.0,10.0,0,0.00,,,0.00,meteohub,2013-04-21 17:22:00,
2013-04-21 13:23:00,45.7,45.7,30.69,NE,45,7.0,8.0,0,0.00,,,0.00,meteohub,2013-04-21 17:23:00,
2013-04-21 13:25:00,45.3,45.3,30.69,East,90,4.0,10.0,0,0.00,,,0.00,meteohub,2013-04-21 17:25:00,
2013-04-21 13:27:00,45.9,45.9,30.69,SE,135,5.0,10.0,0,0.00,,,0.00,meteohub,2013-04-21 17:27:00,
2013-04-21 13:28:00,46.2,46.2,30.69,South,180,4.0,10.0,0,0.00,,,0.00,meteohub,2013-04-21 17:28:00,
2013-04-21 13:29:00,46.4,46.4,30.69,South,180,4.0,10.0,0,0.00,,,0.00,meteohub,2013-04-21 17:29:00,
2013-04-21 13:31:00,46.4,46.4,30.69,SE,135,5.0,10.0,0,0.00,,,0.00,meteohub,2013-04-21 17:31:00,
2013-04-21 13:33:00,46.4,46.4,30.69,SE,135,5.0,10.0,0,0.00,,,0.00,meteohub,2013-04-21 17:33:00,
2013-04-21 13:34:00,46.9,46.9,30.69,East,90,4.0,10.0,0,0.00,,,0.00,meteohub,2013-04-21 17:34:00,
2013-04-21 13:35:00,46.9,46.9,30.69,East,90,4.0,10.0,0,0.00,,,0.00,meteohub,2013-04-21 17:35:00,
2013-04-21 13:38:00,47.5,47.5,30.69,South,180,7.0,10.0,0,0.00,,,0.00,meteohub,2013-04-21 17:38:00,
2013-04-21 13:39:00,47.1,47.1,30.68,SE,135,4.0,10.0,0,0.00,,,0.00,meteohub,2013-04-21 17:39:00,
2013-04-21 13:40:00,47.1,47.1,30.69,East,90,5.0,8.0,0,0.00,,,0.00,meteohub,2013-04-21 17:40:00,
2013-04-21 13:41:00,47.1,47.1,30.69,NE,45,4.0,8.0,0,0.00,,,0.00,meteohub,2013-04-21 17:41:00,
2013-04-21 13:43:00,47.3,47.3,30.69,East,90,2.0,8.0,0,0.00,,,0.00,meteohub,2013-04-21 17:43:00,
2013-04-21 13:45:00,47.7,47.7,30.69,East,90,8.0,8.0,0,0.00,,,0.00,meteohub,2013-04-21 17:45:00,
2013-04-21 13:46:00,47.5,47.5,30.69,East,90,7.0,8.0,0,0.00,,,0.00,meteohub,2013-04-21 17:46:00,
2013-04-21 13:48:00,47.5,47.5,30.69,East,90,7.0,8.0,0,0.00,,,0.00,meteohub,2013-04-21 17:48:00,
2013-04-21 13:49:00,47.7,47.7,30.69,SE,135,5.0,8.0,0,0.00,,,0.00,meteohub,2013-04-21 17:49:00,
2013-04-21 13:50:00,47.7,47.7,30.69,South,180,4.0,8.0,0,0.00,,,0.00,meteohub,2013-04-21 17:50:00,
2013-04-21 13:52:00,47.5,47.5,30.69,East,90,11.0,11.0,0,0.00,,,0.00,meteohub,2013-04-21 17:52:00,
2013-04-21 13:53:00,47.1,47.1,30.69,East,90,7.0,8.0,0,0.00,,,0.00,meteohub,2013-04-21 17:53:00,
2013-04-21 13:54:00,46.9,46.9,30.68,East,90,6.0,8.0,0,0.00,,,0.00,meteohub,2013-04-21 17:54:00,
2013-04-21 13:55:00,46.8,46.8,30.69,SE,135,5.0,11.0,0,0.00,,,0.00,meteohub,2013-04-21 17:55:00,
2013-04-21 13:57:00,46.8,46.8,30.68,SE,135,4.0,11.0,0,0.00,,,0.00,meteohub,2013-04-21 17:57:00,
2013-04-21 13:58:00,46.8,46.8,30.68,SE,135,4.0,11.0,0,0.00,,,0.00,meteohub,2013-04-21 17:58:00,
2013-04-21 13:59:00,47.1,47.1,30.68,SE,135,6.0,11.0,0,0.00,,,0.00,meteohub,2013-04-21 17:59:00,
2013-04-21 14:00:00,47.3,47.3,30.68,South,180,4.0,11.0,0,0.00,,,0.00,meteohub,2013-04-21 18:00:00,
2013-04-21 14:01:00,47.7,47.7,30.68,East,90,3.0,11.0,0,0.00,,,0.00,meteohub,2013-04-21 18:01:00,
2013-04-21 14:03:00,48.6,48.6,30.68,North,0,2.0,11.0,0,0.00,,,0.00,meteohub,2013-04-21 18:03:00,
2013-04-21 14:04:00,48.7,48.7,30.68,SE,135,2.0,11.0,0,0.00,,,0.00,meteohub,2013-04-21 18:04:00,
2013-04-21 14:05:00,49.1,49.1,30.68,WSW,248,2.0,11.0,0,0.00,,,0.00,meteohub,2013-04-21 18:05:00,
2013-04-21 14:06:00,50.0,50.0,30.68,NE,45,8.0,11.0,0,0.00,,,0.00,meteohub,2013-04-21 18:06:00,
2013-04-21 14:09:00,49.3,49.3,30.68,East,90,7.0,11.0,0,0.00,,,0.00,meteohub,2013-04-21 18:09:00,
2013-04-21 14:10:00,49.3,49.3,30.68,East,90,7.0,11.0,0,0.00,,,0.00,meteohub,2013-04-21 18:10:00,
2013-04-21 14:12:00,48.6,48.6,30.69,North,0,5.0,11.0,0,0.00,,,0.00,meteohub,2013-04-21 18:12:00,
2013-04-21 14:15:00,48.2,48.2,30.68,South,180,4.0,11.0,0,0.00,,,0.00,meteohub,2013-04-21 18:15:00,
2013-04-21 14:17:00,48.2,48.2,30.68,South,180,4.0,11.0,0,0.00,,,0.00,meteohub,2013-04-21 18:17:00,
2013-04-21 14:18:00,48.2,48.2,30.67,South,180,4.0,11.0,0,0.00,,,0.00,meteohub,2013-04-21 18:18:00,
2013-04-21 14:19:00,48.2,48.2,30.68,South,180,4.0,11.0,0,0.00,,,0.00,meteohub,2013-04-21 18:19:00,
2013-04-21 14:20:00,48.4,48.4,30.67,SE,135,4.0,11.0,0,0.00,,,0.00,meteohub,2013-04-21 18:20:00,
2013-04-21 14:22:00,48.4,48.4,30.68,East,90,6.0,11.0,0,0.00,,,0.00,meteohub,2013-04-21 18:22:00,
2013-04-21 14:23:00,48.4,48.4,30.67,South,180,5.0,11.0,0,0.00,,,0.00,meteohub,2013-04-21 18:23:00,
2013-04-21 14:24:00,48.4,48.4,30.67,WSW,248,4.0,11.0,0,0.00,,,0.00,meteohub,2013-04-21 18:24:00,
2013-04-21 14:25:00,48.6,48.6,30.67,SSE,158,4.0,7.0,0,0.00,,,0.00,meteohub,2013-04-21 18:25:00,
2013-04-21 14:28:00,48.7,48.7,30.67,East,90,4.0,7.0,0,0.00,,,0.00,meteohub,2013-04-21 18:28:00,
2013-04-21 14:29:00,48.7,48.7,30.67,ESE,113,4.0,7.0,0,0.00,,,0.00,meteohub,2013-04-21 18:29:00,
2013-04-21 14:30:00,48.7,48.7,30.67,North,0,6.0,6.0,0,0.00,,,0.00,meteohub,2013-04-21 18:30:00,
2013-04-21 14:34:00,48.7,48.7,30.67,SE,135,5.0,6.0,0,0.00,,,0.00,meteohub,2013-04-21 18:34:00,
2013-04-21 14:35:00,48.7,48.7,30.67,SE,135,5.0,6.0,0,0.00,,,0.00,meteohub,2013-04-21 18:35:00,
2013-04-21 14:36:00,48.7,48.7,30.67,SE,135,5.0,6.0,0,0.00,,,0.00,meteohub,2013-04-21 18:36:00,
2013-04-21 14:39:00,48.7,48.7,30.67,SE,135,5.0,6.0,0,0.00,,,0.00,meteohub,2013-04-21 18:39:00,
2013-04-21 14:40:00,48.7,48.7,30.67,SE,135,5.0,6.0,0,0.00,,,0.00,meteohub,2013-04-21 18:40:00,
2013-04-21 14:41:00,48.7,48.7,30.67,SE,135,5.0,6.0,0,0.00,,,0.00,meteohub,2013-04-21 18:41:00,
2013-04-21 14:44:00,49.1,49.1,30.67,SE,135,5.0,6.0,0,0.00,,,0.00,meteohub,2013-04-21 18:44:00,
2013-04-21 14:45:00,49.1,49.1,30.66,East,90,6.0,6.0,0,0.00,,,0.00,meteohub,2013-04-21 18:45:00,
2013-04-21 14:46:00,48.9,48.9,30.66,East,90,9.0,9.0,0,0.00,,,0.00,meteohub,2013-04-21 18:46:00,
2013-04-21 14:47:00,48.9,48.9,30.66,East,90,9.0,9.0,0,0.00,,,0.00,meteohub,2013-04-21 18:47:00,
2013-04-21 14:48:00,48.7,48.7,30.66,East,90,6.0,7.0,0,0.00,,,0.00,meteohub,2013-04-21 18:48:00,
2013-04-21 14:50:00,48.6,48.6,30.67,East,90,8.0,8.0,0,0.00,,,0.00,meteohub,2013-04-21 18:50:00,
2013-04-21 14:53:00,48.2,48.2,30.66,East,90,5.0,9.0,0,0.00,,,0.00,meteohub,2013-04-21 18:53:00,
2013-04-21 14:54:00,48.2,48.2,30.66,NE,45,8.0,9.0,0,0.00,,,0.00,meteohub,2013-04-21 18:54:00,
2013-04-21 14:55:00,48.4,48.4,30.66,NW,315,8.0,10.0,0,0.00,,,0.00,meteohub,2013-04-21 18:55:00,
2013-04-21 14:56:00,48.4,48.4,30.66,East,90,6.0,10.0,0,0.00,,,0.00,meteohub,2013-04-21 18:56:00,
2013-04-21 14:58:00,48.9,48.9,30.66,East,90,2.0,10.0,0,0.00,,,0.00,meteohub,2013-04-21 18:58:00,
2013-04-21 14:59:00,48.9,48.9,30.66,East,90,2.0,10.0,0,0.00,,,0.00,meteohub,2013-04-21 18:59:00,
2013-04-21 15:00:00,49.3,49.3,30.66,East,90,2.0,10.0,0,0.00,,,0.00,meteohub,2013-04-21 19:00:00,
2013-04-21 15:01:00,49.3,49.3,30.66,East,90,2.0,10.0,0,0.00,,,0.00,meteohub,2013-04-21 19:01:00,
2013-04-21 15:04:00,49.3,49.3,30.66,East,90,2.0,10.0,0,0.00,,,0.00,meteohub,2013-04-21 19:04:00,
2013-04-21 15:05:00,49.3,49.3,30.66,East,90,2.0,10.0,0,0.00,,,0.00,meteohub,2013-04-21 19:05:00,
2013-04-21 15:06:00,49.3,49.3,30.66,East,90,2.0,10.0,0,0.00,,,0.00,meteohub,2013-04-21 19:06:00,
2013-04-21 15:07:00,49.3,49.3,30.66,East,90,2.0,10.0,0,0.00,,,0.00,meteohub,2013-04-21 19:07:00,
2013-04-21 15:08:00,50.2,50.2,30.65,NW,315,6.0,10.0,0,0.00,,,0.00,meteohub,2013-04-21 19:08:00,
2013-04-21 15:10:00,50.5,50.5,30.65,NW,315,4.0,10.0,0,0.00,,,0.00,meteohub,2013-04-21 19:10:00,
2013-04-21 15:11:00,50.5,50.5,30.65,NW,315,3.0,8.0,0,0.00,,,0.00,meteohub,2013-04-21 19:11:00,
2013-04-21 15:13:00,51.3,51.3,30.65,NE,45,3.0,8.0,0,0.00,,,0.00,meteohub,2013-04-21 19:13:00,
2013-04-21 15:14:00,51.8,51.8,30.65,South,180,8.0,8.0,0,0.00,,,0.00,meteohub,2013-04-21 19:14:00,
2013-04-21 15:15:00,52.0,52.0,30.65,WSW,248,5.0,6.0,0,0.00,,,0.00,meteohub,2013-04-21 19:15:00,
2013-04-21 15:18:00,51.3,51.3,30.65,SE,135,5.0,6.0,0,0.00,,,0.00,meteohub,2013-04-21 19:18:00,
2013-04-21 15:19:00,51.3,51.3,30.65,East,90,8.0,8.0,0,0.00,,,0.00,meteohub,2013-04-21 19:19:00,
2013-04-21 15:20:00,51.3,51.3,30.65,SE,135,5.0,6.0,0,0.00,,,0.00,meteohub,2013-04-21 19:20:00,
2013-04-21 15:22:00,51.1,51.1,30.65,NE,45,8.0,10.0,0,0.00,,,0.00,meteohub,2013-04-21 19:22:00,
2013-04-21 15:23:00,50.9,50.9,30.65,SE,135,7.0,10.0,0,0.00,,,0.00,meteohub,2013-04-21 19:23:00,
2013-04-21 15:24:00,50.7,50.7,30.65,East,90,4.0,10.0,0,0.00,,,0.00,meteohub,2013-04-21 19:24:00,
2013-04-21 15:25:00,50.5,50.5,30.65,NE,45,7.0,10.0,0,0.00,,,0.00,meteohub,2013-04-21 19:25:00,
2013-04-21 15:27:00,50.4,50.4,30.65,North,0,4.0,10.0,0,0.00,,,0.00,meteohub,2013-04-21 19:27:00,
2013-04-21 15:28:00,50.9,50.9,30.65,WSW,248,2.0,10.0,0,0.00,,,0.00,meteohub,2013-04-21 19:28:00,
2013-04-21 15:30:00,51.4,51.4,30.64,NE,45,5.0,10.0,0,0.00,,,0.00,meteohub,2013-04-21 19:30:00,
2013-04-21 15:31:00,52.0,52.0,30.64,South,180,5.0,10.0,0,0.00,,,0.00,meteohub,2013-04-21 19:31:00,
2013-04-21 15:33:00,52.3,52.3,30.65,East,90,4.0,10.0,0,0.00,,,0.00,meteohub,2013-04-21 19:33:00,
2013-04-21 15:34:00,52.3,52.3,30.65,NE,45,6.0,10.0,0,0.00,,,0.00,meteohub,2013-04-21 19:34:00,
2013-04-21 15:36:00,51.8,51.8,30.64,WSW,248,3.0,8.0,0,0.00,,,0.00,meteohub,2013-04-21 19:36:00,
2013-04-21 15:37:00,52.0,52.0,30.64,NE,45,2.0,8.0,0,0.00,,,0.00,meteohub,2013-04-21 19:37:00,
2013-04-21 15:38:00,52.0,52.0,30.64,East,90,6.0,8.0,0,0.00,,,0.00,meteohub,2013-04-21 19:38:00,
2013-04-21 15:39:00,51.8,51.8,30.64,East,90,11.0,11.0,0,0.00,,,0.00,meteohub,2013-04-21 19:39:00,
2013-04-21 15:40:00,51.8,51.8,30.64,East,90,11.0,11.0,0,0.00,,,0.00,meteohub,2013-04-21 19:40:00,
2013-04-21 15:42:00,51.3,51.3,30.64,East,90,5.0,8.0,0,0.00,,,0.00,meteohub,2013-04-21 19:42:00,
2013-04-21 15:43:00,51.1,51.1,30.64,NE,45,7.0,8.0,0,0.00,,,0.00,meteohub,2013-04-21 19:43:00,
2013-04-21 15:44:00,51.1,51.1,30.64,NE,45,4.0,8.0,0,0.00,,,0.00,meteohub,2013-04-21 19:44:00,
2013-04-21 15:45:00,51.1,51.1,30.64,NE,45,9.0,9.0,0,0.00,,,0.00,meteohub,2013-04-21 19:45:00,
2013-04-21 15:46:00,51.1,51.1,30.64,East,90,10.0,11.0,0,0.00,,,0.00,meteohub,2013-04-21 19:46:00,
2013-04-21 15:48:00,51.1,51.1,30.64,East,90,8.0,11.0,0,0.00,,,0.00,meteohub,2013-04-21 19:48:00,
2013-04-21 15:49:00,50.9,50.9,30.64,NE,45,2.0,11.0,0,0.00,,,0.00,meteohub,2013-04-21 19:49:00,
2013-04-21 15:50:00,51.1,51.1,30.64,South,180,3.0,11.0,0,0.00,,,0.00,meteohub,2013-04-21 19:50:00,
2013-04-21 15:53:00,51.8,51.8,30.64,East,90,8.0,11.0,0,0.00,,,0.00,meteohub,2013-04-21 19:53:00,
2013-04-21 15:54:00,51.8,51.8,30.64,East,90,7.0,11.0,0,0.00,,,0.00,meteohub,2013-04-21 19:54:00,
2013-04-21 15:56:00,51.8,51.8,30.64,East,90,5.0,10.0,0,0.00,,,0.00,meteohub,2013-04-21 19:56:00,
2013-04-21 15:59:00,51.1,51.1,30.64,North,0,5.0,10.0,0,0.00,,,0.00,meteohub,2013-04-21 19:59:00,
2013-04-21 16:00:00,51.1,51.1,30.64,West,270,5.0,10.0,0,0.00,,,0.00,meteohub,2013-04-21 20:00:00,
2013-04-21 16:01:00,51.1,51.1,30.64,West,270,5.0,10.0,0,0.00,,,0.00,meteohub,2013-04-21 20:01:00,
2013-04-21 16:05:00,53.1,53.1,30.63,North,0,2.0,10.0,0,0.00,,,0.00,meteohub,2013-04-21 20:05:00,
2013-04-21 16:06:00,53.6,53.6,30.64,East,90,1.0,9.0,0,0.00,,,0.00,meteohub,2013-04-21 20:06:00,
2013-04-21 16:10:00,54.1,54.1,30.64,NE,45,6.0,9.0,0,0.00,,,0.00,meteohub,2013-04-21 20:10:00,
2013-04-21 16:11:00,54.1,54.1,30.63,East,90,4.0,9.0,0,0.00,,,0.00,meteohub,2013-04-21 20:11:00,
2013-04-21 16:12:00,54.0,54.0,30.64,East,90,7.0,9.0,0,0.00,,,0.00,meteohub,2013-04-21 20:12:00,
2013-04-21 16:16:00,53.4,53.4,30.63,South,180,6.0,8.0,0,0.00,,,0.00,meteohub,2013-04-21 20:16:00,
2013-04-21 16:17:00,53.4,53.4,30.63,South,180,6.0,8.0,0,0.00,,,0.00,meteohub,2013-04-21 20:17:00,
2013-04-21 16:18:00,53.4,53.4,30.63,South,180,6.0,8.0,0,0.00,,,0.00,meteohub,2013-04-21 20:18:00,
2013-04-21 16:21:00,53.4,53.4,30.63,South,180,6.0,8.0,0,0.00,,,0.00,meteohub,2013-04-21 20:21:00,
2013-04-21 16:22:00,53.4,53.4,30.63,South,180,6.0,8.0,0,0.00,,,0.00,meteohub,2013-04-21 20:22:00,
2013-04-21 16:23:00,54.0,54.0,30.63,South,180,4.0,8.0,0,0.00,,,0.00,meteohub,2013-04-21 20:23:00,
2013-04-21 16:25:00,54.0,54.0,30.63,East,90,6.0,8.0,0,0.00,,,0.00,meteohub,2013-04-21 20:25:00,
2013-04-21 16:26:00,54.0,54.0,30.63,NW,315,2.0,8.0,0,0.00,,,0.00,meteohub,2013-04-21 20:26:00,
2013-04-21 16:28:00,54.3,54.3,30.63,East,90,4.0,8.0,0,0.00,,,0.00,meteohub,2013-04-21 20:28:00,
2013-04-21 16:30:00,54.3,54.3,30.63,NE,45,4.0,8.0,0,0.00,,,0.00,meteohub,2013-04-21 20:30:00,
2013-04-21 16:31:00,54.1,54.1,30.63,NE,45,6.0,6.0,0,0.00,,,0.00,meteohub,2013-04-21 20:31:00,
2013-04-21 16:32:00,53.8,53.8,30.63,NE,45,7.0,7.0,0,0.00,,,0.00,meteohub,2013-04-21 20:32:00,
2013-04-21 16:34:00,53.2,53.2,30.63,NW,315,6.0,6.0,0,0.00,,,0.00,meteohub,2013-04-21 20:34:00,
2013-04-21 16:36:00,52.5,52.5,30.63,East,90,9.0,9.0,0,0.00,,,0.00,meteohub,2013-04-21 20:36:00,
2013-04-21 16:37:00,52.5,52.5,30.63,NE,45,5.0,7.0,0,0.00,,,0.00,meteohub,2013-04-21 20:37:00,
2013-04-21 16:39:00,53.1,53.1,30.63,East,90,4.0,7.0,0,0.00,,,0.00,meteohub,2013-04-21 20:39:00,
2013-04-21 16:40:00,53.4,53.4,30.63,East,90,4.0,12.0,0,0.00,,,0.00,meteohub,2013-04-21 20:40:00,
2013-04-21 16:42:00,53.4,53.4,30.62,East,90,5.0,12.0,0,0.00,,,0.00,meteohub,2013-04-21 20:42:00,
2013-04-21 16:45:00,53.2,53.2,30.62,East,90,6.0,12.0,0,0.00,,,0.00,meteohub,2013-04-21 20:45:00,
2013-04-21 16:47:00,53.1,53.1,30.63,East,90,8.0,12.0,0,0.00,,,0.00,meteohub,2013-04-21 20:47:00,
2013-04-21 16:50:00,52.7,52.7,30.63,NE,45,4.0,12.0,0,0.00,,,0.00,meteohub,2013-04-21 20:50:00,
2013-04-21 16:52:00,53.1,53.1,30.62,SE,135,2.0,12.0,0,0.00,,,0.00,meteohub,2013-04-21 20:52:00,
2013-04-21 16:54:00,53.8,53.8,30.63,NE,45,6.0,12.0,0,0.00,,,0.00,meteohub,2013-04-21 20:54:00,
2013-04-21 16:55:00,53.8,53.8,30.62,East,90,4.0,10.0,0,0.00,,,0.00,meteohub,2013-04-21 20:55:00,
2013-04-21 16:56:00,53.8,53.8,30.62,North,0,5.0,10.0,0,0.00,,,0.00,meteohub,2013-04-21 20:56:00,
2013-04-21 16:58:00,53.6,53.6,30.62,NW,315,4.0,10.0,0,0.00,,,0.00,meteohub,2013-04-21 20:58:00,
2013-04-21 17:00:00,53.8,53.8,30.62,East,90,3.0,10.0,0,0.00,,,0.00,meteohub,2013-04-21 21:00:00,
2013-04-21 17:01:00,53.8,53.8,30.62,East,90,3.0,8.0,0,0.00,,,0.00,meteohub,2013-04-21 21:01:00,
2013-04-21 17:02:00,53.4,53.4,30.61,NE,45,6.0,8.0,0,0.00,,,0.00,meteohub,2013-04-21 21:02:00,
2013-04-21 17:04:00,54.0,54.0,30.62,East,90,1.0,8.0,0,0.00,,,0.00,meteohub,2013-04-21 21:04:00,
2013-04-21 17:05:00,54.3,54.3,30.62,South,180,4.0,8.0,0,0.00,,,0.00,meteohub,2013-04-21 21:05:00,
2013-04-21 17:06:00,54.7,54.7,30.62,South,180,4.0,8.0,0,0.00,,,0.00,meteohub,2013-04-21 21:06:00,
2013-04-21 17:07:00,54.9,54.9,30.62,East,90,6.0,8.0,0,0.00,,,0.00,meteohub,2013-04-21 21:07:00,
2013-04-21 17:09:00,54.9,54.9,30.62,East,90,4.0,8.0,0,0.00,,,0.00,meteohub,2013-04-21 21:09:00,
2013-04-21 17:11:00,54.9,54.9,30.62,SE,135,6.0,8.0,0,0.00,,,0.00,meteohub,2013-04-21 21:11:00,
2013-04-21 17:12:00,54.9,54.9,30.62,South,180,4.0,8.0,0,0.00,,,0.00,meteohub,2013-04-21 21:12:00,
2013-04-21 17:15:00,54.7,54.7,30.62,South,180,10.0,10.0,0,0.00,,,0.00,meteohub,2013-04-21 21:15:00,
2013-04-21 17:16:00,54.1,54.1,30.62,SE,135,3.0,10.0,0,0.00,,,0.00,meteohub,2013-04-21 21:16:00,
2013-04-21 17:17:00,54.1,54.1,30.62,East,90,7.0,10.0,0,0.00,,,0.00,meteohub,2013-04-21 21:17:00,
2013-04-21 17:18:00,54.1,54.1,30.62,SE,135,3.0,10.0,0,0.00,,,0.00,meteohub,2013-04-21 21:18:00,
2013-04-21 17:19:00,54.3,54.3,30.61,NW,315,2.0,10.0,0,0.00,,,0.00,meteohub,2013-04-21 21:19:00,
2013-04-21 17:20:00,55.6,55.6,30.62,North,0,5.0,10.0,0,0.00,,,0.00,meteohub,2013-04-21 21:20:00,
2013-04-21 17:21:00,54.7,54.7,30.62,NE,45,2.0,10.0,0,0.00,,,0.00,meteohub,2013-04-21 21:21:00,
2013-04-21 17:22:00,54.7,54.7,30.62,NE,45,2.0,10.0,0,0.00,,,0.00,meteohub,2013-04-21 21:22:00,
2013-04-21 17:23:00,55.0,55.0,30.62,SE,135,4.0,10.0,0,0.00,,,0.00,meteohub,2013-04-21 21:23:00,
2013-04-21 17:25:00,55.6,55.6,30.61,SE,135,4.0,10.0,0,0.00,,,0.00,meteohub,2013-04-21 21:25:00,
2013-04-21 17:27:00,55.9,55.9,30.62,East,90,5.0,10.0,0,0.00,,,0.00,meteohub,2013-04-21 21:27:00,
2013-04-21 17:29:00,55.8,55.8,30.62,SE,135,3.0,10.0,0,0.00,,,0.00,meteohub,2013-04-21 21:29:00,
2013-04-21 17:31:00,55.2,55.2,30.62,South,180,8.0,10.0,0,0.00,,,0.00,meteohub,2013-04-21 21:31:00,
2013-04-21 17:32:00,55.0,55.0,30.62,South,180,5.0,10.0,0,0.00,,,0.00,meteohub,2013-04-21 21:32:00,
2013-04-21 17:33:00,55.0,55.0,30.62,South,180,3.0,10.0,0,0.00,,,0.00,meteohub,2013-04-21 21:33:00,
2013-04-21 17:34:00,55.0,55.0,30.62,South,180,4.0,10.0,0,0.00,,,0.00,meteohub,2013-04-21 21:34:00,
2013-04-21 17:35:00,55.0,55.0,30.62,South,180,5.0,8.0,0,0.00,,,0.00,meteohub,2013-04-21 21:35:00,
2013-04-21 17:36:00,55.0,55.0,30.62,South,180,7.0,8.0,0,0.00,,,0.00,meteohub,2013-04-21 21:36:00,
2013-04-21 17:37:00,55.0,55.0,30.62,East,90,4.0,8.0,0,0.00,,,0.00,meteohub,2013-04-21 21:37:00,
2013-04-21 17:40:00,54.3,54.3,30.62,East,90,8.0,8.0,0,0.00,,,0.00,meteohub,2013-04-21 21:40:00,
2013-04-21 17:41:00,54.3,54.3,30.63,East,90,10.0,10.0,0,0.00,,,0.00,meteohub,2013-04-21 21:41:00,
2013-04-21 17:43:00,54.0,54.0,30.62,East,90,6.0,8.0,0,0.00,,,0.00,meteohub,2013-04-21 21:43:00,
2013-04-21 17:45:00,54.0,54.0,30.63,East,90,4.0,10.0,0,0.00,,,0.00,meteohub,2013-04-21 21:45:00,
2013-04-21 17:46:00,54.0,54.0,30.63,East,90,4.0,10.0,0,0.00,,,0.00,meteohub,2013-04-21 21:46:00,
2013-04-21 17:48:00,54.0,54.0,30.63,SE,135,4.0,10.0,0,0.00,,,0.00,meteohub,2013-04-21 21:48:00,
2013-04-21 17:49:00,54.0,54.0,30.63,SE,135,5.0,10.0,0,0.00,,,0.00,meteohub,2013-04-21 21:49:00,
2013-04-21 17:51:00,54.0,54.0,30.63,East,90,4.0,10.0,0,0.00,,,0.00,meteohub,2013-04-21 21:51:00,
2013-04-21 17:54:00,54.1,54.1,30.63,WSW,248,3.0,10.0,0,0.00,,,0.00,meteohub,2013-04-21 21:54:00,
2013-04-21 17:55:00,54.1,54.1,30.63,South,180,4.0,10.0,0,0.00,,,0.00,meteohub,2013-04-21 21:55:00,
2013-04-21 17:57:00,54.3,54.3,30.63,SE,135,4.0,10.0,0,0.00,,,0.00,meteohub,2013-04-21 21:57:00,
2013-04-21 17:59:00,54.0,54.0,30.63,SE,135,6.0,10.0,0,0.00,,,0.00,meteohub,2013-04-21 21:59:00,
2013-04-21 18:00:00,54.0,54.0,30.63,NE,45,5.0,10.0,0,0.00,,,0.00,meteohub,2013-04-21 22:00:00,
2013-04-21 18:02:00,52.9,52.9,30.63,East,90,4.0,6.0,0,0.00,,,0.00,meteohub,2013-04-21 22:02:00,
2013-04-21 18:04:00,52.5,52.5,30.63,East,90,4.0,6.0,0,0.00,,,0.00,meteohub,2013-04-21 22:04:00,
2013-04-21 18:05:00,52.5,52.5,30.63,East,90,2.0,6.0,0,0.00,,,0.00,meteohub,2013-04-21 22:05:00,
2013-04-21 18:06:00,52.3,52.3,30.64,East,90,2.0,6.0,0,0.00,,,0.00,meteohub,2013-04-21 22:06:00,
2013-04-21 18:08:00,52.3,52.3,30.63,East,90,4.0,6.0,0,0.00,,,0.00,meteohub,2013-04-21 22:08:00,
2013-04-21 18:09:00,51.8,51.8,30.63,SE,135,2.0,6.0,0,0.00,,,0.00,meteohub,2013-04-21 22:09:00,
2013-04-21 18:10:00,52.0,52.0,30.63,SE,135,2.0,7.0,0,0.00,,,0.00,meteohub,2013-04-21 22:10:00,
2013-04-21 18:11:00,52.0,52.0,30.63,SE,135,2.0,7.0,0,0.00,,,0.00,meteohub,2013-04-21 22:11:00,
2013-04-21 18:14:00,52.3,52.3,30.63,SE,135,4.0,7.0,0,0.00,,,0.00,meteohub,2013-04-21 22:14:00,
2013-04-21 18:15:00,52.3,52.3,30.63,SE,135,3.0,7.0,0,0.00,,,0.00,meteohub,2013-04-21 22:15:00,
2013-04-21 18:17:00,52.5,52.5,30.63,East,90,4.0,7.0,0,0.00,,,0.00,meteohub,2013-04-21 22:17:00,
2013-04-21 18:20:00,52.3,52.3,30.63,East,90,5.0,7.0,0,0.00,,,0.00,meteohub,2013-04-21 22:20:00,
2013-04-21 18:21:00,52.3,52.3,30.63,East,90,5.0,7.0,0,0.00,,,0.00,meteohub,2013-04-21 22:21:00,
2013-04-21 18:23:00,52.2,52.2,30.63,East,90,3.0,7.0,0,0.00,,,0.00,meteohub,2013-04-21 22:23:00,
2013-04-21 18:25:00,52.0,52.0,30.63,East,90,3.0,6.0,0,0.00,,,0.00,meteohub,2013-04-21 22:25:00,
2013-04-21 18:26:00,52.0,52.0,30.63,East,90,2.0,6.0,0,0.00,,,0.00,meteohub,2013-04-21 22:26:00,
2013-04-21 18:29:00,52.3,52.3,30.63,East,90,4.0,6.0,0,0.00,,,0.00,meteohub,2013-04-21 22:29:00,
2013-04-21 18:30:00,52.3,52.3,30.63,North,0,3.0,6.0,0,0.00,,,0.00,meteohub,2013-04-21 22:30:00,
2013-04-21 18:31:00,52.3,52.3,30.63,SE,135,4.0,6.0,0,0.00,,,0.00,meteohub,2013-04-21 22:31:00,
2013-04-21 18:36:00,51.6,51.6,30.63,SE,135,6.0,6.0,0,0.00,,,0.00,meteohub,2013-04-21 22:36:00,
2013-04-21 18:37:00,51.4,51.4,30.63,East,90,4.0,6.0,0,0.00,,,0.00,meteohub,2013-04-21 22:37:00,
2013-04-21 18:41:00,50.9,50.9,30.63,SE,135,4.0,11.0,0,0.00,,,0.00,meteohub,2013-04-21 22:41:00,
2013-04-21 18:42:00,50.9,50.9,30.63,SE,135,4.0,11.0,0,0.00,,,0.00,meteohub,2013-04-21 22:42:00,
2013-04-21 18:46:00,50.5,50.5,30.63,East,90,4.0,11.0,0,0.00,,,0.00,meteohub,2013-04-21 22:46:00,
2013-04-21 18:47:00,50.5,50.5,30.63,East,90,4.0,11.0,0,0.00,,,0.00,meteohub,2013-04-21 22:47:00,
2013-04-21 18:48:00,50.4,50.4,30.63,East,90,4.0,11.0,0,0.00,,,0.00,meteohub,2013-04-21 22:48:00,
2013-04-21 18:52:00,49.5,49.5,30.63,SE,135,4.0,7.0,0,0.00,,,0.00,meteohub,2013-04-21 22:52:00,
2013-04-21 18:53:00,49.3,49.3,30.63,East,90,4.0,7.0,0,0.00,,,0.00,meteohub,2013-04-21 22:53:00,
2013-04-21 18:54:00,49.1,49.1,30.63,East,90,8.0,8.0,0,0.00,,,0.00,meteohub,2013-04-21 22:54:00,
2013-04-21 18:57:00,48.7,48.7,30.63,East,90,8.0,8.0,0,0.00,,,0.00,meteohub,2013-04-21 22:57:00,
2013-04-21 18:58:00,48.6,48.6,30.64,East,90,3.0,7.0,0,0.00,,,0.00,meteohub,2013-04-21 22:58:00,
2013-04-21 18:59:00,48.4,48.4,30.64,East,90,3.0,7.0,0,0.00,,,0.00,meteohub,2013-04-21 22:59:00,
2013-04-21 19:00:00,48.4,48.4,30.64,East,90,3.0,7.0,0,0.00,,,0.00,meteohub,2013-04-21 23:00:00,
2013-04-21 19:02:00,48.4,48.4,30.64,East,90,4.0,10.0,0,0.00,,,0.00,meteohub,2013-04-21 23:02:00,
2013-04-21 19:04:00,48.2,48.2,30.63,East,90,4.0,10.0,0,0.00,,,0.00,meteohub,2013-04-21 23:04:00,
2013-04-21 19:05:00,48.2,48.2,30.63,SE,135,4.0,10.0,0,0.00,,,0.00,meteohub,2013-04-21 23:05:00,
2013-04-21 19:08:00,48.0,48.0,30.63,East,90,4.0,10.0,0,0.00,,,0.00,meteohub,2013-04-21 23:08:00,
2013-04-21 19:09:00,48.0,48.0,30.63,SE,135,4.0,10.0,0,0.00,,,0.00,meteohub,2013-04-21 23:09:00,
2013-04-21 19:10:00,48.0,48.0,30.63,East,90,4.0,8.0,0,0.00,,,0.00,meteohub,2013-04-21 23:10:00,
2013-04-21 19:11:00,48.0,48.0,30.63,East,90,4.0,8.0,0,0.00,,,0.00,meteohub,2013-04-21 23:11:00,
2013-04-21 19:13:00,47.8,47.8,30.63,SE,135,4.0,8.0,0,0.00,,,0.00,meteohub,2013-04-21 23:13:00,
2013-04-21 19:15:00,47.8,47.8,30.64,SE,135,4.0,8.0,0,0.00,,,0.00,meteohub,2013-04-21 23:15:00,
2013-04-21 19:16:00,47.8,47.8,30.64,SE,135,4.0,5.0,0,0.00,,,0.00,meteohub,2013-04-21 23:16:00,
2013-04-21 19:17:00,47.7,47.7,30.64,SE,135,4.0,5.0,0,0.00,,,0.00,meteohub,2013-04-21 23:17:00,
2013-04-21 19:20:00,47.3,47.3,30.64,East,90,3.0,5.0,0,0.00,,,0.00,meteohub,2013-04-21 23:20:00,
2013-04-21 19:21:00,47.3,47.3,30.64,East,90,4.0,5.0,0,0.00,,,0.00,meteohub,2013-04-21 23:21:00,
2013-04-21 19:22:00,47.1,47.1,30.64,SE,135,3.0,5.0,0,0.00,,,0.00,meteohub,2013-04-21 23:22:00,
2013-04-21 19:25:00,46.9,46.9,30.64,East,90,4.0,5.0,0,0.00,,,0.00,meteohub,2013-04-21 23:25:00,
2013-04-21 19:26:00,46.9,46.9,30.64,East,90,4.0,5.0,0,0.00,,,0.00,meteohub,2013-04-21 23:26:00,
2013-04-21 19:27:00,46.9,46.9,30.64,East,90,4.0,5.0,0,0.00,,,0.00,meteohub,2013-04-21 23:27:00,
2013-04-21 19:28:00,46.9,46.9,30.64,SE,135,4.0,5.0,0,0.00,,,0.00,meteohub,2013-04-21 23:28:00,
2013-04-21 19:31:00,46.8,46.8,30.64,East,90,4.0,8.0,0,0.00,,,0.00,meteohub,2013-04-21 23:31:00,
2013-04-21 19:32:00,46.8,46.8,30.64,East,90,5.0,8.0,0,0.00,,,0.00,meteohub,2013-04-21 23:32:00,
2013-04-21 19:33:00,46.6,46.6,30.64,South,180,4.0,8.0,0,0.00,,,0.00,meteohub,2013-04-21 23:33:00,
2013-04-21 19:36:00,46.4,46.4,30.64,East,90,4.0,8.0,0,0.00,,,0.00,meteohub,2013-04-21 23:36:00,
2013-04-21 19:37:00,46.4,46.4,30.64,East,90,4.0,8.0,0,0.00,,,0.00,meteohub,2013-04-21 23:37:00,
2013-04-21 19:38:00,46.2,46.2,30.64,East,90,4.0,8.0,0,0.00,,,0.00,meteohub,2013-04-21 23:38:00,
2013-04-21 19:39:00,46.2,46.2,30.64,East,90,4.0,8.0,0,0.00,,,0.00,meteohub,2013-04-21 23:39:00,
2013-04-21 19:42:00,46.0,46.0,30.64,SE,135,3.0,8.0,0,0.00,,,0.00,meteohub,2013-04-21 23:42:00,
2013-04-21 19:43:00,46.0,46.0,30.64,SE,135,2.0,8.0,0,0.00,,,0.00,meteohub,2013-04-21 23:43:00,
2013-04-21 19:44:00,46.0,46.0,30.64,East,90,2.0,8.0,0,0.00,,,0.00,meteohub,2013-04-21 23:44:00,
2013-04-21 19:45:00,46.0,46.0,30.64,East,90,2.0,8.0,0,0.00,,,0.00,meteohub,2013-04-21 23:45:00,
2013-04-21 19:47:00,45.9,45.9,30.64,East,90,6.0,6.0,0,0.00,,,0.00,meteohub,2013-04-21 23:47:00,
2013-04-21 19:48:00,45.7,45.7,30.64,East,90,3.0,5.0,0,0.00,,,0.00,meteohub,2013-04-21 23:48:00,
2013-04-21 19:49:00,45.7,45.7,30.64,East,90,4.0,5.0,0,0.00,,,0.00,meteohub,2013-04-21 23:49:00,
2013-04-21 19:50:00,45.7,45.7,30.64,East,90,4.0,5.0,0,0.00,,,0.00,meteohub,2013-04-21 23:50:00,
2013-04-21 19:51:00,45.7,45.7,30.64,East,90,2.0,6.0,0,0.00,,,0.00,meteohub,2013-04-21 23:51:00,
2013-04-21 19:52:00,45.5,45.5,30.64,East,90,3.0,6.0,0,0.00,,,0.00,meteohub,2013-04-21 23:52:00,
2013-04-21 19:54:00,45.3,45.3,30.64,East,90,3.0,6.0,0,0.00,,,0.00,meteohub,2013-04-21 23:54:00,
2013-04-21 19:55:00,45.3,45.3,30.64,SE,135,2.0,6.0,0,0.00,,,0.00,meteohub,2013-04-21 23:55:00,
2013-04-21 19:56:00,45.3,45.3,30.64,East,90,2.0,6.0,0,0.00,,,0.00,meteohub,2013-04-21 23:56:00,
2013-04-21 19:57:00,45.1,45.1,30.64,East,90,3.0,6.0,0,0.00,,,0.00,meteohub,2013-04-21 23:57:00,
2013-04-21 19:59:00,45.1,45.1,30.64,East,90,2.0,6.0,0,0.00,,,0.00,meteohub,2013-04-21 23:59:00,
2013-04-21 20:00:00,45.1,45.1,30.64,East,90,2.0,6.0,0,0.00,,,0.00,meteohub,2013-04-22 00:00:00,
2013-04-21 20:01:00,45.1,45.1,30.64,East,90,2.0,6.0,0,0.00,,,0.00,meteohub,2013-04-22 00:01:00,
2013-04-21 20:02:00,45.0,45.0,30.64,East,90,3.0,6.0,0,0.00,,,0.00,meteohub,2013-04-22 00:02:00,
2013-04-21 20:05:00,44.8,44.8,30.64,East,90,2.0,6.0,0,0.00,,,0.00,meteohub,2013-04-22 00:05:00,
2013-04-21 20:06:00,44.8,44.8,30.64,East,90,2.0,4.0,0,0.00,,,0.00,meteohub,2013-04-22 00:06:00,
2013-04-21 20:07:00,44.6,44.6,30.65,East,90,2.0,4.0,0,0.00,,,0.00,meteohub,2013-04-22 00:07:00,
2013-04-21 20:08:00,44.6,44.6,30.65,East,90,2.0,4.0,0,0.00,,,0.00,meteohub,2013-04-22 00:08:00,
2013-04-21 20:11:00,44.4,44.4,30.65,East,90,2.0,3.0,0,0.00,,,0.00,meteohub,2013-04-22 00:11:00,
2013-04-21 20:12:00,44.2,44.2,30.65,East,90,2.0,3.0,0,0.00,,,0.00,meteohub,2013-04-22 00:12:00,
2013-04-21 20:13:00,44.2,44.2,30.64,East,90,3.0,3.0,0,0.00,,,0.00,meteohub,2013-04-22 00:13:00,
2013-04-21 20:14:00,44.2,44.2,30.64,East,90,3.0,3.0,0,0.00,,,0.00,meteohub,2013-04-22 00:14:00,
2013-04-21 20:17:00,44.1,44.1,30.65,East,90,4.0,4.0,0,0.00,,,0.00,meteohub,2013-04-22 00:17:00,
2013-04-21 20:18:00,44.2,44.2,30.64,East,90,3.0,3.0,0,0.00,,,0.00,meteohub,2013-04-22 00:18:00,
2013-04-21 20:19:00,44.2,44.2,30.65,East,90,3.0,3.0,0,0.00,,,0.00,meteohub,2013-04-22 00:19:00,
2013-04-21 20:22:00,44.1,44.1,30.65,SE,135,3.0,4.0,0,0.00,,,0.00,meteohub,2013-04-22 00:22:00,
2013-04-21 20:23:00,43.9,43.9,30.65,East,90,3.0,4.0,0,0.00,,,0.00,meteohub,2013-04-22 00:23:00,
2013-04-21 20:25:00,43.9,43.9,30.65,East,90,3.0,4.0,0,0.00,,,0.00,meteohub,2013-04-22 00:25:00,
2013-04-21 20:28:00,43.9,43.9,30.65,East,90,2.0,4.0,0,0.00,,,0.00,meteohub,2013-04-22 00:28:00,
2013-04-21 20:29:00,43.9,43.9,30.65,East,90,2.0,4.0,0,0.00,,,0.00,meteohub,2013-04-22 00:29:00,
2013-04-21 20:30:00,43.7,43.7,30.65,East,90,2.0,4.0,0,0.00,,,0.00,meteohub,2013-04-22 00:30:00,
2013-04-21 20:32:00,43.7,43.7,30.65,SE,135,2.0,4.0,0,0.00,,,0.00,meteohub,2013-04-22 00:32:00,
2013-04-21 20:33:00,43.7,43.7,30.65,East,90,2.0,4.0,0,0.00,,,0.00,meteohub,2013-04-22 00:33:00,
2013-04-21 20:35:00,43.5,43.5,30.64,ESE,113,2.0,4.0,0,0.00,,,0.00,meteohub,2013-04-22 00:35:00,
2013-04-21 20:36:00,43.5,43.5,30.65,East,90,4.0,4.0,0,0.00,,,0.00,meteohub,2013-04-22 00:36:00,
2013-04-21 20:38:00,43.5,43.5,30.64,East,90,3.0,4.0,0,0.00,,,0.00,meteohub,2013-04-22 00:38:00,
2013-04-21 20:39:00,43.5,43.5,30.64,East,90,3.0,4.0,0,0.00,,,0.00,meteohub,2013-04-22 00:39:00,
2013-04-21 20:40:00,43.5,43.5,30.64,SE,135,3.0,4.0,0,0.00,,,0.00,meteohub,2013-04-22 00:40:00,
2013-04-21 20:41:00,43.5,43.5,30.64,East,90,3.0,4.0,0,0.00,,,0.00,meteohub,2013-04-22 00:41:00,
2013-04-21 20:42:00,43.5,43.5,30.65,SE,135,2.0,4.0,0,0.00,,,0.00,meteohub,2013-04-22 00:42:00,
2013-04-21 20:44:00,43.3,43.3,30.65,East,90,3.0,4.0,0,0.00,,,0.00,meteohub,2013-04-22 00:44:00,
2013-04-21 20:45:00,43.3,43.3,30.65,East,90,4.0,4.0,0,0.00,,,0.00,meteohub,2013-04-22 00:45:00,
2013-04-21 20:46:00,43.3,43.3,30.64,East,90,4.0,4.0,0,0.00,,,0.00,meteohub,2013-04-22 00:46:00,
2013-04-21 20:48:00,43.3,43.3,30.64,East,90,2.0,4.0,0,0.00,,,0.00,meteohub,2013-04-22 00:48:00,
2013-04-21 20:49:00,43.3,43.3,30.65,East,90,4.0,4.0,0,0.00,,,0.00,meteohub,2013-04-22 00:49:00,
2013-04-21 20:50:00,43.2,43.2,30.64,SE,135,4.0,4.0,0,0.00,,,0.00,meteohub,2013-04-22 00:50:00,
2013-04-21 20:51:00,43.2,43.2,30.65,East,90,4.0,4.0,0,0.00,,,0.00,meteohub,2013-04-22 00:51:00,
2013-04-21 20:53:00,43.2,43.2,30.65,East,90,4.0,4.0,0,0.00,,,0.00,meteohub,2013-04-22 00:53:00,
2013-04-21 20:54:00,43.2,43.2,30.65,SE,135,4.0,4.0,0,0.00,,,0.00,meteohub,2013-04-22 00:54:00,
2013-04-21 20:56:00,43.0,43.0,30.64,East,90,3.0,4.0,0,0.00,,,0.00,meteohub,2013-04-22 00:56:00,
2013-04-21 20:58:00,43.0,43.0,30.65,East,90,4.0,4.0,0,0.00,,,0.00,meteohub,2013-04-22 00:58:00,
2013-04-21 20:59:00,43.2,43.2,30.65,East,90,4.0,4.0,0,0.00,,,0.00,meteohub,2013-04-22 00:59:00,
2013-04-21 21:00:00,43.0,43.0,30.65,East,90,3.0,4.0,0,0.00,,,0.00,meteohub,2013-04-22 01:00:00,
2013-04-21 21:01:00,43.0,43.0,30.65,East,90,4.0,4.0,0,0.00,,,0.00,meteohub,2013-04-22 01:01:00,
2013-04-21 21:04:00,43.0,43.0,30.65,East,90,3.0,4.0,0,0.00,,,0.00,meteohub,2013-04-22 01:04:00,
2013-04-21 21:05:00,43.0,43.0,30.65,East,90,4.0,4.0,0,0.00,,,0.00,meteohub,2013-04-22 01:05:00,
2013-04-21 21:09:00,43.0,43.0,30.65,East,90,4.0,4.0,0,0.00,,,0.00,meteohub,2013-04-22 01:09:00,
2013-04-21 21:10:00,43.0,43.0,30.65,East,90,4.0,4.0,0,0.00,,,0.00,meteohub,2013-04-22 01:10:00,
2013-04-21 21:11:00,43.0,43.0,30.65,East,90,4.0,5.0,0,0.00,,,0.00,meteohub,2013-04-22 01:11:00,
2013-04-21 21:14:00,42.8,42.8,30.65,East,90,4.0,5.0,0,0.00,,,0.00,meteohub,2013-04-22 01:14:00,
2013-04-21 21:15:00,42.8,42.8,30.65,East,90,4.0,5.0,0,0.00,,,0.00,meteohub,2013-04-22 01:15:00,
2013-04-21 21:16:00,42.8,42.8,30.65,East,90,4.0,5.0,0,0.00,,,0.00,meteohub,2013-04-22 01:16:00,
2013-04-21 21:19:00,42.8,42.8,30.65,East,90,4.0,5.0,0,0.00,,,0.00,meteohub,2013-04-22 01:19:00,
2013-04-21 21:20:00,42.8,42.8,30.65,East,90,3.0,5.0,0,0.00,,,0.00,meteohub,2013-04-22 01:20:00,
2013-04-21 21:21:00,42.8,42.8,30.65,East,90,4.0,5.0,0,0.00,,,0.00,meteohub,2013-04-22 01:21:00,
2013-04-21 21:22:00,42.8,42.8,30.65,East,90,4.0,5.0,0,0.00,,,0.00,meteohub,2013-04-22 01:22:00,
2013-04-21 21:23:00,42.6,42.6,30.65,East,90,4.0,5.0,0,0.00,,,0.00,meteohub,2013-04-22 01:23:00,
2013-04-21 21:25:00,42.6,42.6,30.65,SE,135,4.0,4.0,0,0.00,,,0.00,meteohub,2013-04-22 01:25:00,
2013-04-21 21:27:00,42.6,42.6,30.66,East,90,4.0,4.0,0,0.00,,,0.00,meteohub,2013-04-22 01:27:00,
2013-04-21 21:28:00,42.6,42.6,30.66,East,90,4.0,4.0,0,0.00,,,0.00,meteohub,2013-04-22 01:28:00,
2013-04-21 21:30:00,42.6,42.6,30.66,East,90,4.0,6.0,0,0.00,,,0.00,meteohub,2013-04-22 01:30:00,
2013-04-21 21:32:00,42.6,42.6,30.66,East,90,4.0,6.0,0,0.00,,,0.00,meteohub,2013-04-22 01:32:00,
2013-04-21 21:33:00,42.6,42.6,30.66,East,90,4.0,6.0,0,0.00,,,0.00,meteohub,2013-04-22 01:33:00,
2013-04-21 21:34:00,42.6,42.6,30.66,East,90,4.0,6.0,0,0.00,,,0.00,meteohub,2013-04-22 01:34:00,
2013-04-21 21:35:00,42.6,42.6,30.66,East,90,4.0,6.0,0,0.00,,,0.00,meteohub,2013-04-22 01:35:00,
2013-04-21 21:37:00,42.6,42.6,30.65,East,90,4.0,6.0,0,0.00,,,0.00,meteohub,2013-04-22 01:37:00,
2013-04-21 21:38:00,42.6,42.6,30.66,East,90,4.0,6.0,0,0.00,,,0.00,meteohub,2013-04-22 01:38:00,
2013-04-21 21:39:00,42.4,42.4,30.66,East,90,5.0,6.0,0,0.00,,,0.00,meteohub,2013-04-22 01:39:00,
2013-04-21 21:40:00,42.4,42.4,30.66,SE,135,3.0,5.0,0,0.00,,,0.00,meteohub,2013-04-22 01:40:00,
2013-04-21 21:42:00,42.4,42.4,30.66,SE,135,5.0,5.0,0,0.00,,,0.00,meteohub,2013-04-22 01:42:00,
2013-04-21 21:43:00,42.4,42.4,30.66,East,90,4.0,5.0,0,0.00,,,0.00,meteohub,2013-04-22 01:43:00,
2013-04-21 21:45:00,42.4,42.4,30.66,East,90,5.0,5.0,0,0.00,,,0.00,meteohub,2013-04-22 01:45:00,
2013-04-21 21:47:00,42.4,42.4,30.66,SE,135,4.0,6.0,0,0.00,,,0.00,meteohub,2013-04-22 01:47:00,
2013-04-21 21:48:00,42.4,42.4,30.66,SE,135,4.0,6.0,0,0.00,,,0.00,meteohub,2013-04-22 01:48:00,
2013-04-21 21:49:00,42.4,42.4,30.66,SE,135,4.0,6.0,0,0.00,,,0.00,meteohub,2013-04-22 01:49:00,
2013-04-21 21:50:00,42.4,42.4,30.66,SE,135,5.0,8.0,0,0.00,,,0.00,meteohub,2013-04-22 01:50:00,
2013-04-21 21:52:00,42.4,42.4,30.66,SE,135,4.0,8.0,0,0.00,,,0.00,meteohub,2013-04-22 01:52:00,
2013-04-21 21:54:00,42.4,42.4,30.66,East,90,4.0,8.0,0,0.00,,,0.00,meteohub,2013-04-22 01:54:00,
2013-04-21 21:55:00,42.4,42.4,30.66,East,90,5.0,8.0,0,0.00,,,0.00,meteohub,2013-04-22 01:55:00,
2013-04-21 21:56:00,42.4,42.4,30.66,East,90,5.0,8.0,0,0.00,,,0.00,meteohub,2013-04-22 01:56:00,
2013-04-21 21:58:00,42.4,42.4,30.66,East,90,5.0,8.0,0,0.00,,,0.00,meteohub,2013-04-22 01:58:00,
2013-04-21 22:00:00,42.4,42.4,30.66,East,90,5.0,8.0,0,0.00,,,0.00,meteohub,2013-04-22 02:00:00,
2013-04-21 22:01:00,42.4,42.4,30.66,East,90,5.0,8.0,0,0.00,,,0.00,meteohub,2013-04-22 02:01:00,
2013-04-21 22:03:00,42.4,42.4,30.66,SE,135,5.0,8.0,0,0.00,,,0.00,meteohub,2013-04-22 02:03:00,
2013-04-21 22:05:00,42.3,42.3,30.65,East,90,5.0,8.0,0,0.00,,,0.00,meteohub,2013-04-22 02:05:00,
2013-04-21 22:06:00,42.3,42.3,30.65,East,90,6.0,6.0,0,0.00,,,0.00,meteohub,2013-04-22 02:06:00,
2013-04-21 22:10:00,42.3,42.3,30.66,SE,135,7.0,7.0,0,0.00,,,0.00,meteohub,2013-04-22 02:10:00,
2013-04-21 22:11:00,42.3,42.3,30.66,East,90,5.0,6.0,0,0.00,,,0.00,meteohub,2013-04-22 02:11:00,
2013-04-21 22:12:00,42.3,42.3,30.66,East,90,6.0,6.0,0,0.00,,,0.00,meteohub,2013-04-22 02:12:00,
2013-04-21 22:15:00,42.3,42.3,30.66,East,90,4.0,7.0,0,0.00,,,0.00,meteohub,2013-04-22 02:15:00,
2013-04-21 22:16:00,42.3,42.3,30.66,East,90,5.0,7.0,0,0.00,,,0.00,meteohub,2013-04-22 02:16:00,
2013-04-21 22:17:00,42.3,42.3,30.66,East,90,6.0,7.0,0,0.00,,,0.00,meteohub,2013-04-22 02:17:00,
2013-04-21 22:21:00,42.1,42.1,30.66,East,90,4.0,7.0,0,0.00,,,0.00,meteohub,2013-04-22 02:21:00,
2013-04-21 22:22:00,42.1,42.1,30.66,SE,135,4.0,7.0,0,0.00,,,0.00,meteohub,2013-04-22 02:22:00,
2013-04-21 22:23:00,42.1,42.1,30.66,East,90,4.0,7.0,0,0.00,,,0.00,meteohub,2013-04-22 02:23:00,
2013-04-21 22:25:00,42.1,42.1,30.66,East,90,7.0,7.0,0,0.00,,,0.00,meteohub,2013-04-22 02:25:00,
2013-04-21 22:26:00,42.3,42.3,30.66,East,90,5.0,6.0,0,0.00,,,0.00,meteohub,2013-04-22 02:26:00,
2013-04-21 22:28:00,42.1,42.1,30.66,East,90,4.0,6.0,0,0.00,,,0.00,meteohub,2013-04-22 02:28:00,
2013-04-21 22:29:00,42.1,42.1,30.66,SE,135,5.0,6.0,0,0.00,,,0.00,meteohub,2013-04-22 02:29:00,
2013-04-21 22:31:00,42.1,42.1,30.66,SE,135,5.0,7.0,0,0.00,,,0.00,meteohub,2013-04-22 02:31:00,
2013-04-21 22:33:00,42.1,42.1,30.66,SE,135,5.0,7.0,0,0.00,,,0.00,meteohub,2013-04-22 02:33:00,
2013-04-21 22:34:00,42.1,42.1,30.66,SE,135,5.0,7.0,0,0.00,,,0.00,meteohub,2013-04-22 02:34:00,
2013-04-21 22:35:00,41.9,41.9,30.66,East,90,6.0,7.0,0,0.00,,,0.00,meteohub,2013-04-22 02:35:00,
2013-04-21 22:37:00,41.9,41.9,30.66,SE,135,4.0,7.0,0,0.00,,,0.00,meteohub,2013-04-22 02:37:00,
2013-04-21 22:38:00,41.9,41.9,30.66,East,90,4.0,7.0,0,0.00,,,0.00,meteohub,2013-04-22 02:38:00,
2013-04-21 22:39:00,41.9,41.9,30.66,SE,135,5.0,7.0,0,0.00,,,0.00,meteohub,2013-04-22 02:39:00,
2013-04-21 22:40:00,41.9,41.9,30.66,SE,135,5.0,7.0,0,0.00,,,0.00,meteohub,2013-04-22 02:40:00,
2013-04-21 22:41:00,41.7,41.7,30.65,East,90,6.0,7.0,0,0.00,,,0.00,meteohub,2013-04-22 02:41:00,
2013-04-21 22:42:00,41.9,41.9,30.66,East,90,7.0,7.0,0,0.00,,,0.00,meteohub,2013-04-22 02:42:00,
2013-04-21 22:44:00,41.7,41.7,30.65,SE,135,7.0,7.0,0,0.00,,,0.00,meteohub,2013-04-22 02:44:00,
2013-04-21 22:45:00,41.7,41.7,30.66,SE,135,6.0,7.0,0,0.00,,,0.00,meteohub,2013-04-22 02:45:00,
2013-04-21 22:47:00,41.7,41.7,30.65,East,90,6.0,8.0,0,0.00,,,0.00,meteohub,2013-04-22 02:47:00,
2013-04-21 22:49:00,41.7,41.7,30.66,East,90,5.0,8.0,0,0.00,,,0.00,meteohub,2013-04-22 02:49:00,
2013-04-21 22:51:00,41.7,41.7,30.66,SE,135,7.0,8.0,0,0.00,,,0.00,meteohub,2013-04-22 02:51:00,
2013-04-21 22:52:00,41.7,41.7,30.65,SE,135,5.0,8.0,0,0.00,,,0.00,meteohub,2013-04-22 02:52:00,
2013-04-21 22:53:00,41.7,41.7,30.65,SE,135,5.0,8.0,0,0.00,,,0.00,meteohub,2013-04-22 02:53:00,
2013-04-21 22:54:00,41.7,41.7,30.65,East,90,5.0,8.0,0,0.00,,,0.00,meteohub,2013-04-22 02:54:00,
2013-04-21 22:56:00,41.5,41.5,30.65,SE,135,4.0,8.0,0,0.00,,,0.00,meteohub,2013-04-22 02:56:00,
2013-04-21 22:57:00,41.5,41.5,30.65,East,90,6.0,8.0,0,0.00,,,0.00,meteohub,2013-04-22 02:57:00,
2013-04-21 22:58:00,41.5,41.5,30.65,East,90,6.0,8.0,0,0.00,,,0.00,meteohub,2013-04-22 02:58:00,
2013-04-21 22:59:00,41.5,41.5,30.65,SE,135,4.0,8.0,0,0.00,,,0.00,meteohub,2013-04-22 02:59:00,
2013-04-21 23:01:00,41.5,41.5,30.65,East,90,4.0,8.0,0,0.00,,,0.00,meteohub,2013-04-22 03:01:00,
2013-04-21 23:03:00,41.5,41.5,30.65,East,90,4.0,8.0,0,0.00,,,0.00,meteohub,2013-04-22 03:03:00,
2013-04-21 23:05:00,41.5,41.5,30.65,East,90,4.0,8.0,0,0.00,,,0.00,meteohub,2013-04-22 03:05:00,
2013-04-21 23:06:00,41.5,41.5,30.65,East,90,4.0,7.0,0,0.00,,,0.00,meteohub,2013-04-22 03:06:00,
2013-04-21 23:07:00,41.5,41.5,30.65,East,90,4.0,7.0,0,0.00,,,0.00,meteohub,2013-04-22 03:07:00,
2013-04-21 23:08:00,41.4,41.4,30.66,East,90,4.0,7.0,0,0.00,,,0.00,meteohub,2013-04-22 03:08:00,
2013-04-21 23:10:00,41.4,41.4,30.65,East,90,6.0,7.0,0,0.00,,,0.00,meteohub,2013-04-22 03:10:00,
2013-04-21 23:12:00,41.4,41.4,30.65,SE,135,5.0,7.0,0,0.00,,,0.00,meteohub,2013-04-22 03:12:00,
2013-04-21 23:14:00,41.2,41.2,30.65,East,90,5.0,7.0,0,0.00,,,0.00,meteohub,2013-04-22 03:14:00,
2013-04-21 23:15:00,41.2,41.2,30.65,East,90,5.0,7.0,0,0.00,,,0.00,meteohub,2013-04-22 03:15:00,
2013-04-21 23:19:00,41.0,41.0,30.65,SE,135,6.0,7.0,0,0.00,,,0.00,meteohub,2013-04-22 03:19:00,
2013-04-21 23:20:00,41.0,41.0,30.65,East,90,5.0,7.0,0,0.00,,,0.00,meteohub,2013-04-22 03:20:00,
2013-04-21 23:21:00,41.0,41.0,30.65,SE,135,5.0,7.0,0,0.00,,,0.00,meteohub,2013-04-22 03:21:00,
2013-04-21 23:23:00,40.8,40.8,30.65,SE,135,6.0,7.0,0,0.00,,,0.00,meteohub,2013-04-22 03:23:00,
2013-04-21 23:24:00,40.8,40.8,30.65,East,90,8.0,8.0,0,0.00,,,0.00,meteohub,2013-04-22 03:24:00,
2013-04-21 23:25:00,40.8,40.8,30.65,ESE,113,8.0,8.0,0,0.00,,,0.00,meteohub,2013-04-22 03:25:00,
2013-04-21 23:27:00,41.0,41.0,30.65,SE,135,7.0,8.0,0,0.00,,,0.00,meteohub,2013-04-22 03:27:00,
2013-04-21 23:29:00,41.0,41.0,30.65,SE,135,6.0,8.0,0,0.00,,,0.00,meteohub,2013-04-22 03:29:00,
2013-04-21 23:30:00,40.8,40.8,30.65,SE,135,6.0,8.0,0,0.00,,,0.00,meteohub,2013-04-22 03:30:00,
2013-04-21 23:31:00,40.8,40.8,30.65,ENE,68,11.0,11.0,0,0.00,,,0.00,meteohub,2013-04-22 03:31:00,
2013-04-21 23:32:00,40.8,40.8,30.65,East,90,8.0,8.0,0,0.00,,,0.00,meteohub,2013-04-22 03:32:00,
2013-04-21 23:34:00,40.8,40.8,30.65,East,90,7.0,8.0,0,0.00,,,0.00,meteohub,2013-04-22 03:34:00,
2013-04-21 23:35:00,40.8,40.8,30.65,East,90,7.0,8.0,0,0.00,,,0.00,meteohub,2013-04-22 03:35:00,
2013-04-21 23:37:00,40.8,40.8,30.65,East,90,6.0,11.0,0,0.00,,,0.00,meteohub,2013-04-22 03:37:00,
2013-04-21 23:39:00,40.8,40.8,30.65,SE,135,8.0,11.0,0,0.00,,,0.00,meteohub,2013-04-22 03:39:00,
2013-04-21 23:40:00,40.8,40.8,30.65,SE,135,8.0,11.0,0,0.00,,,0.00,meteohub,2013-04-22 03:40:00,
2013-04-21 23:41:00,40.8,40.8,30.65,SE,135,6.0,11.0,0,0.00,,,0.00,meteohub,2013-04-22 03:41:00,
2013-04-21 23:42:00,40.6,40.6,30.65,East,90,5.0,11.0,0,0.00,,,0.00,meteohub,2013-04-22 03:42:00,
2013-04-21 23:45:00,40.5,40.5,30.65,East,90,6.0,11.0,0,0.00,,,0.00,meteohub,2013-04-22 03:45:00,
2013-04-21 23:47:00,40.5,40.5,30.65,East,90,7.0,11.0,0,0.00,,,0.00,meteohub,2013-04-22 03:47:00,
2013-04-21 23:48:00,40.6,40.6,30.65,East,90,7.0,11.0,0,0.00,,,0.00,meteohub,2013-04-22 03:48:00,
2013-04-21 23:50:00,40.5,40.5,30.65,East,90,6.0,8.0,0,0.00,,,0.00,meteohub,2013-04-22 03:50:00,
2013-04-21 23:51:00,40.5,40.5,30.65,East,90,6.0,8.0,0,0.00,,,0.00,meteohub,2013-04-22 03:51:00,
2013-04-21 23:52:00,40.5,40.5,30.65,SE,135,7.0,8.0,0,0.00,,,0.00,meteohub,2013-04-22 03:52:00,
2013-04-21 23:54:00,40.5,40.5,30.65,East,90,5.0,8.0,0,0.00,,,0.00,meteohub,2013-04-22 03:54:00,
2013-04-21 23:55:00,40.5,40.5,30.65,East,90,5.0,8.0,0,0.00,,,0.00,meteohub,2013-04-22 03:55:00,
2013-04-21 23:56:00,40.5,40.5,30.65,SE,135,5.0,8.0,0,0.00,,,0.00,meteohub,2013-04-22 03:56:00,
2013-04-21 23:57:00,40.5,40.5,30.65,East,90,6.0,8.0,0,0.00,,,0.00,meteohub,2013-04-22 03:57:00,
2013-04-21 23:58:00,40.5,40.5,30.65,ESE,113,7.0,8.0,0,0.00,,,0.00,meteohub,2013-04-22 03:58:00,